Time,TemperatureF,DewpointF,PressureIn,WindDirection,WindDirectionDegrees,WindSpeedMPH,WindSpeedGustMPH,Humidity,HourlyPrecipIn,Conditions,Clouds,dailyrainin,SoftwareType,DateUTC
2013-05-22 00:00:00,68.8,64.4,29.83,West,270,0.0,0.7,86,0.00,,,0.00,WUHU216HW,2013-05-22 04:00:00,
2013-05-22 00:01:00,68.8,64.4,29.83,West,270,0.0,0.7,86,0.00,,,0.00,WUHU216HW,2013-05-22 04:01:00,
2013-05-22 00:02:00,68.8,64.4,29.83,West,270,0.0,0.0,86,0.00,,,0.00,WUHU216HW,2013-05-22 04:02:00,
2013-05-22 00:03:00,68.6,64.2,29.83,West,270,0.0,0.0,86,0.00,,,0.00,WUHU216HW,2013-05-22 04:03:00,
2013-05-22 00:07:00,68.4,64.0,29.83,West,270,1.1,1.1,86,0.00,,,0.00,WUHU216HW,2013-05-22 04:07:00,
2013-05-22 00:08:00,68.4,64.0,29.83,West,270,0.9,1.1,86,0.00,,,0.00,WUHU216HW,2013-05-22 04:08:00,
2013-05-22 00:09:00,68.4,64.0,29.83,West,270,0.7,1.1,86,0.00,,,0.00,WUHU216HW,2013-05-22 04:09:00,
2013-05-22 00:12:00,68.4,64.0,29.83,West,270,0.0,1.1,86,0.00,,,0.00,WUHU216HW,2013-05-22 04:12:00,
2013-05-22 00:13:00,68.2,63.9,29.83,West,270,0.0,1.1,86,0.00,,,0.00,WUHU216HW,2013-05-22 04:13:00,
2013-05-22 00:14:00,68.2,63.9,29.84,WSW,248,0.0,1.1,86,0.00,,,0.00,WUHU216HW,2013-05-22 04:14:00,
2013-05-22 00:15:00,68.2,63.9,29.84,WSW,248,0.0,1.1,86,0.00,,,0.00,WUHU216HW,2013-05-22 04:15:00,
2013-05-22 00:17:00,68.0,63.7,29.84,ESE,113,0.6,0.9,86,0.00,,,0.00,WUHU216HW,2013-05-22 04:17:00,
2013-05-22 00:18:00,68.0,64.0,29.84,ESE,113,1.1,1.1,87,0.00,,,0.00,WUHU216HW,2013-05-22 04:18:00,
2013-05-22 00:20:00,68.0,64.0,29.84,ESE,113,1.1,1.1,87,0.00,,,0.00,WUHU216HW,2013-05-22 04:20:00,
2013-05-22 00:22:00,68.0,64.4,29.84,ESE,103,1.1,1.3,88,0.00,,,0.00,WUHU216HW,2013-05-22 04:22:00,
2013-05-22 00:23:00,68.2,64.5,29.84,East,90,0.6,1.3,88,0.00,,,0.00,WUHU216HW,2013-05-22 04:23:00,
2013-05-22 00:25:00,68.0,64.4,29.84,East,90,0.0,1.3,88,0.00,,,0.00,WUHU216HW,2013-05-22 04:25:00,
2013-05-22 00:26:00,68.0,64.4,29.84,East,90,0.0,1.3,88,0.00,,,0.00,WUHU216HW,2013-05-22 04:26:00,
2013-05-22 00:27:00,68.0,64.0,29.84,East,90,0.0,1.3,87,0.00,,,0.00,WUHU216HW,2013-05-22 04:27:00,
2013-05-22 00:29:00,68.0,64.4,29.84,WNW,293,1.1,1.3,88,0.00,,,0.00,WUHU216HW,2013-05-22 04:29:00,
2013-05-22 00:30:00,68.0,64.4,29.84,West,270,2.5,2.5,88,0.00,,,0.00,WUHU216HW,2013-05-22 04:30:00,
2013-05-22 00:31:00,68.0,64.0,29.84,West,270,2.2,2.5,87,0.00,,,0.00,WUHU216HW,2013-05-22 04:31:00,
2013-05-22 00:33:00,68.0,64.0,29.84,West,270,1.6,2.5,87,0.00,,,0.00,WUHU216HW,2013-05-22 04:33:00,
2013-05-22 00:34:00,68.0,64.0,29.84,West,270,1.4,2.5,87,0.00,,,0.00,WUHU216HW,2013-05-22 04:34:00,
2013-05-22 00:35:00,68.0,64.4,29.84,West,270,1.6,2.5,88,0.00,,,0.00,WUHU216HW,2013-05-22 04:35:00,
2013-05-22 00:36:00,68.0,64.0,29.84,West,270,1.0,2.5,87,0.00,,,0.00,WUHU216HW,2013-05-22 04:36:00,
2013-05-22 00:40:00,67.9,63.8,29.84,SSE,168,0.8,1.8,87,0.00,,,0.00,WUHU216HW,2013-05-22 04:40:00,
2013-05-22 00:41:00,67.9,63.8,29.84,SSE,168,0.8,1.8,87,0.00,,,0.00,WUHU216HW,2013-05-22 04:41:00,
2013-05-22 00:43:00,67.9,64.2,29.84,SE,131,1.1,1.8,88,0.00,,,0.00,WUHU216HW,2013-05-22 04:43:00,
2013-05-22 00:46:00,68.0,64.4,29.84,East,90,4.3,4.3,88,0.00,,,0.00,WUHU216HW,2013-05-22 04:46:00,
2013-05-22 00:47:00,68.0,64.4,29.83,SE,135,5.4,5.4,88,0.00,,,0.00,WUHU216HW,2013-05-22 04:47:00,
2013-05-22 00:48:00,68.0,64.4,29.83,SE,135,5.4,5.4,88,0.00,,,0.00,WUHU216HW,2013-05-22 04:48:00,
2013-05-22 00:49:00,68.2,64.5,29.83,ESE,116,4.7,5.4,88,0.00,,,0.00,WUHU216HW,2013-05-22 04:49:00,
2013-05-22 00:52:00,68.8,65.1,29.83,SE,141,2.9,5.4,88,0.00,,,0.00,WUHU216HW,2013-05-22 04:52:00,
2013-05-22 00:53:00,68.9,65.3,29.83,South,180,2.5,5.4,88,0.00,,,0.00,WUHU216HW,2013-05-22 04:53:00,
2013-05-22 00:54:00,69.1,65.4,29.83,South,188,1.9,5.4,88,0.00,,,0.00,WUHU216HW,2013-05-22 04:54:00,
2013-05-22 00:55:00,69.1,65.4,29.83,SSW,203,1.2,5.4,88,0.00,,,0.00,WUHU216HW,2013-05-22 04:55:00,
2013-05-22 00:57:00,69.5,65.7,29.83,SE,135,5.7,6.3,88,0.00,,,0.00,WUHU216HW,2013-05-22 04:57:00,
2013-05-22 00:59:00,69.5,65.4,29.83,SSW,203,6.3,6.3,87,0.00,,,0.00,WUHU216HW,2013-05-22 04:59:00,
2013-05-22 01:00:00,69.7,65.6,29.83,South,179,4.2,6.3,87,0.00,,,0.00,WUHU216HW,2013-05-22 05:00:00,
2013-05-22 01:02:00,69.8,65.8,29.84,South,180,4.0,6.3,87,0.00,,,0.00,WUHU216HW,2013-05-22 05:02:00,
2013-05-22 01:04:00,70.0,65.6,29.84,ESE,113,4.0,6.3,86,0.00,,,0.00,WUHU216HW,2013-05-22 05:04:00,
2013-05-22 01:05:00,70.2,65.8,29.84,ESE,113,3.8,6.3,86,0.00,,,0.00,WUHU216HW,2013-05-22 05:05:00,
2013-05-22 01:07:00,70.2,65.8,29.84,ENE,68,3.6,6.3,86,0.00,,,0.00,WUHU216HW,2013-05-22 05:07:00,
2013-05-22 01:09:00,70.4,66.0,29.83,South,172,5.9,7.8,86,0.00,,,0.00,WUHU216HW,2013-05-22 05:09:00,
2013-05-22 01:10:00,70.6,66.2,29.83,NNE,23,5.6,7.8,86,0.00,,,0.00,WUHU216HW,2013-05-22 05:10:00,
2013-05-22 01:11:00,70.6,66.2,29.83,NNE,23,5.6,7.8,86,0.00,,,0.00,WUHU216HW,2013-05-22 05:11:00,
2013-05-22 01:13:00,70.9,66.2,29.83,SE,135,6.3,7.8,85,0.00,,,0.00,WUHU216HW,2013-05-22 05:13:00,
2013-05-22 01:15:00,70.9,66.2,29.83,South,180,2.5,7.8,85,0.00,,,0.00,WUHU216HW,2013-05-22 05:15:00,
2013-05-22 01:16:00,70.9,66.2,29.83,SSW,203,5.4,7.8,85,0.00,,,0.00,WUHU216HW,2013-05-22 05:16:00,
2013-05-22 01:18:00,71.1,66.0,29.83,SSE,162,5.0,6.9,84,0.00,,,0.00,WUHU216HW,2013-05-22 05:18:00,
2013-05-22 01:21:00,71.1,66.0,29.83,SE,135,4.7,6.3,84,0.00,,,0.00,WUHU216HW,2013-05-22 05:21:00,
2013-05-22 01:22:00,71.3,66.2,29.83,SE,135,4.7,6.3,84,0.00,,,0.00,WUHU216HW,2013-05-22 05:22:00,
2013-05-22 01:23:00,71.3,66.2,29.83,SSE,154,4.1,6.0,84,0.00,,,0.00,WUHU216HW,2013-05-22 05:23:00,
2013-05-22 01:25:00,71.1,66.0,29.83,ESE,113,3.6,6.0,84,0.00,,,0.00,WUHU216HW,2013-05-22 05:25:00,
2013-05-22 01:27:00,71.1,66.0,29.83,SE,132,3.2,6.0,84,0.00,,,0.00,WUHU216HW,2013-05-22 05:27:00,
2013-05-22 01:29:00,71.3,65.8,29.83,SSE,158,6.7,6.7,83,0.00,,,0.00,WUHU216HW,2013-05-22 05:29:00,
2013-05-22 01:30:00,71.3,65.8,29.83,SSE,158,5.3,6.7,83,0.00,,,0.00,WUHU216HW,2013-05-22 05:30:00,
2013-05-22 01:32:00,71.3,65.8,29.83,South,173,2.3,6.7,83,0.00,,,0.00,WUHU216HW,2013-05-22 05:32:00,
2013-05-22 01:34:00,71.3,65.8,29.83,SSE,158,3.1,6.7,83,0.00,,,0.00,WUHU216HW,2013-05-22 05:34:00,
2013-05-22 01:35:00,71.3,65.8,29.83,SSE,158,3.1,6.7,83,0.00,,,0.00,WUHU216HW,2013-05-22 05:35:00,
2013-05-22 01:36:00,71.3,65.8,29.83,SSE,158,3.1,6.7,83,0.00,,,0.00,WUHU216HW,2013-05-22 05:36:00,
2013-05-22 01:37:00,71.3,65.8,29.83,SSE,158,3.1,6.7,83,0.00,,,0.00,WUHU216HW,2013-05-22 05:37:00,
2013-05-22 01:39:00,71.3,65.8,29.83,SSE,158,3.1,6.7,83,0.00,,,0.00,WUHU216HW,2013-05-22 05:39:00,
2013-05-22 01:40:00,71.3,65.8,29.83,SSE,158,3.1,3.1,83,0.00,,,0.00,WUHU216HW,2013-05-22 05:40:00,
2013-05-22 01:41:00,71.3,65.8,29.83,SSE,158,3.1,3.1,83,0.00,,,0.00,WUHU216HW,2013-05-22 05:41:00,
2013-05-22 01:42:00,71.3,65.8,29.83,SSE,158,3.1,3.1,83,0.00,,,0.00,WUHU216HW,2013-05-22 05:42:00,
2013-05-22 02:00:00,71.6,65.2,29.81,SSE,158,5.1,5.1,80,0.00,,,0.00,WUHU216HW,2013-05-22 06:00:00,
2013-05-22 02:01:00,71.6,65.2,29.81,SSE,147,4.9,5.1,80,0.00,,,0.00,WUHU216HW,2013-05-22 06:01:00,
2013-05-22 02:05:00,71.6,65.2,29.81,East,101,4.8,5.4,80,0.00,,,0.00,WUHU216HW,2013-05-22 06:05:00,
2013-05-22 02:06:00,71.6,65.2,29.81,ESE,113,6.3,6.3,80,0.00,,,0.00,WUHU216HW,2013-05-22 06:06:00,
2013-05-22 02:07:00,71.6,65.2,29.80,ESE,113,5.9,6.3,80,0.00,,,0.00,WUHU216HW,2013-05-22 06:07:00,
2013-05-22 02:10:00,71.5,65.0,29.80,SE,135,5.6,6.3,80,0.00,,,0.00,WUHU216HW,2013-05-22 06:10:00,
2013-05-22 02:11:00,71.5,65.0,29.80,ESE,113,6.5,6.5,80,0.00,,,0.00,WUHU216HW,2013-05-22 06:11:00,
2013-05-22 02:12:00,71.5,65.0,29.80,ESE,113,4.5,6.5,80,0.00,,,0.00,WUHU216HW,2013-05-22 06:12:00,
2013-05-22 02:16:00,71.5,65.0,29.80,South,183,2.3,6.5,80,0.00,,,0.00,WUHU216HW,2013-05-22 06:16:00,
2013-05-22 02:17:00,71.3,64.8,29.80,West,259,1.9,6.5,80,0.00,,,0.00,WUHU216HW,2013-05-22 06:17:00,
2013-05-22 02:18:00,71.3,64.8,29.80,WSW,248,1.7,6.5,80,0.00,,,0.00,WUHU216HW,2013-05-22 06:18:00,
2013-05-22 02:22:00,71.1,65.0,29.80,SSE,147,3.6,4.7,81,0.00,,,0.00,WUHU216HW,2013-05-22 06:22:00,
2013-05-22 02:23:00,71.1,65.0,29.80,SSE,157,2.6,4.7,81,0.00,,,0.00,WUHU216HW,2013-05-22 06:23:00,
2013-05-22 02:24:00,71.1,65.0,29.80,SSE,158,2.2,4.7,81,0.00,,,0.00,WUHU216HW,2013-05-22 06:24:00,
2013-05-22 02:25:00,71.1,65.0,29.80,WSW,248,2.2,4.7,81,0.00,,,0.00,WUHU216HW,2013-05-22 06:25:00,
2013-05-22 02:27:00,70.9,64.8,29.80,WSW,248,1.8,4.7,81,0.00,,,0.00,WUHU216HW,2013-05-22 06:27:00,
2013-05-22 02:29:00,70.9,64.8,29.80,WSW,248,1.3,4.7,81,0.00,,,0.00,WUHU216HW,2013-05-22 06:29:00,
2013-05-22 02:30:00,70.7,64.6,29.80,WSW,248,0.8,3.8,81,0.00,,,0.00,WUHU216HW,2013-05-22 06:30:00,
2013-05-22 02:34:00,70.4,64.3,29.79,WSW,248,1.1,2.2,81,0.00,,,0.00,WUHU216HW,2013-05-22 06:34:00,
2013-05-22 02:35:00,70.4,64.6,29.80,WSW,248,0.9,1.8,82,0.00,,,0.00,WUHU216HW,2013-05-22 06:35:00,
2013-05-22 02:36:00,70.2,64.5,29.80,WSW,248,0.4,1.8,82,0.00,,,0.00,WUHU216HW,2013-05-22 06:36:00,
2013-05-22 02:38:00,70.0,64.3,29.80,WSW,248,0.0,1.3,82,0.00,,,0.00,WUHU216HW,2013-05-22 06:38:00,
2013-05-22 02:39:00,70.0,64.3,29.80,WSW,248,0.0,1.1,82,0.00,,,0.00,WUHU216HW,2013-05-22 06:39:00,
2013-05-22 02:41:00,69.7,63.9,29.80,WSW,248,0.7,1.1,82,0.00,,,0.00,WUHU216HW,2013-05-22 06:41:00,
2013-05-22 02:42:00,69.7,63.9,29.80,WSW,248,0.6,1.1,82,0.00,,,0.00,WUHU216HW,2013-05-22 06:42:00,
2013-05-22 02:45:00,69.5,64.1,29.80,West,270,0.9,0.9,83,0.00,,,0.00,WUHU216HW,2013-05-22 06:45:00,
2013-05-22 02:47:00,69.3,63.9,29.80,West,270,0.2,0.9,83,0.00,,,0.00,WUHU216HW,2013-05-22 06:47:00,
2013-05-22 02:48:00,69.3,63.9,29.80,West,270,0.4,0.9,83,0.00,,,0.00,WUHU216HW,2013-05-22 06:48:00,
2013-05-22 02:50:00,69.1,63.7,29.80,SSE,158,1.1,1.1,83,0.00,,,0.00,WUHU216HW,2013-05-22 06:50:00,
2013-05-22 02:51:00,69.1,63.7,29.80,WSW,248,1.1,1.1,83,0.00,,,0.00,WUHU216HW,2013-05-22 06:51:00,
2013-05-22 02:52:00,69.1,63.7,29.79,SE,135,2.0,2.0,83,0.00,,,0.00,WUHU216HW,2013-05-22 06:52:00,
2013-05-22 02:53:00,69.1,63.7,29.80,SE,145,1.2,2.0,83,0.00,,,0.00,WUHU216HW,2013-05-22 06:53:00,
2013-05-22 02:55:00,69.1,63.7,29.80,South,173,1.5,2.0,83,0.00,,,0.00,WUHU216HW,2013-05-22 06:55:00,
2013-05-22 02:56:00,69.1,63.7,29.80,SSW,203,0.8,2.0,83,0.00,,,0.00,WUHU216HW,2013-05-22 06:56:00,
2013-05-22 02:58:00,69.1,63.7,29.80,South,180,0.4,2.0,83,0.00,,,0.00,WUHU216HW,2013-05-22 06:58:00,
2013-05-22 02:59:00,69.1,63.7,29.79,South,180,0.9,2.0,83,0.00,,,0.00,WUHU216HW,2013-05-22 06:59:00,
2013-05-22 03:01:00,69.1,63.7,29.79,SW,225,0.4,2.0,83,0.00,,,0.00,WUHU216HW,2013-05-22 07:01:00,
2013-05-22 03:02:00,68.9,63.5,29.79,SSE,158,2.2,2.2,83,0.00,,,0.00,WUHU216HW,2013-05-22 07:02:00,
2013-05-22 03:04:00,68.9,63.5,29.79,SSE,158,1.8,2.2,83,0.00,,,0.00,WUHU216HW,2013-05-22 07:04:00,
2013-05-22 03:05:00,68.9,63.5,29.79,SE,141,1.5,2.2,83,0.00,,,0.00,WUHU216HW,2013-05-22 07:05:00,
2013-05-22 03:06:00,68.9,63.9,29.79,ESE,123,1.0,2.2,84,0.00,,,0.00,WUHU216HW,2013-05-22 07:06:00,
2013-05-22 03:07:00,68.9,63.9,29.79,SSE,158,2.7,2.7,84,0.00,,,0.00,WUHU216HW,2013-05-22 07:07:00,
2013-05-22 03:10:00,68.8,63.7,29.79,SE,135,1.8,2.7,84,0.00,,,0.00,WUHU216HW,2013-05-22 07:10:00,
2013-05-22 03:11:00,68.9,63.9,29.79,East,90,1.8,2.7,84,0.00,,,0.00,WUHU216HW,2013-05-22 07:11:00,
2013-05-22 03:13:00,68.9,63.9,29.78,ESE,113,1.8,2.7,84,0.00,,,0.00,WUHU216HW,2013-05-22 07:13:00,
2013-05-22 03:15:00,69.1,64.1,29.78,South,180,1.8,2.7,84,0.00,,,0.00,WUHU216HW,2013-05-22 07:15:00,
2013-05-22 03:16:00,69.1,64.1,29.78,SSW,199,1.5,2.7,84,0.00,,,0.00,WUHU216HW,2013-05-22 07:16:00,
2013-05-22 03:19:00,69.1,64.1,29.78,SW,225,1.8,1.8,84,0.00,,,0.00,WUHU216HW,2013-05-22 07:19:00,
2013-05-22 03:21:00,69.1,64.1,29.78,South,191,2.3,2.5,84,0.00,,,0.00,WUHU216HW,2013-05-22 07:21:00,
2013-05-22 03:22:00,69.1,64.1,29.78,SW,225,2.2,2.5,84,0.00,,,0.00,WUHU216HW,2013-05-22 07:22:00,
2013-05-22 03:24:00,69.1,63.7,29.78,SSW,203,2.5,2.5,83,0.00,,,0.00,WUHU216HW,2013-05-22 07:24:00,
2013-05-22 03:25:00,69.1,63.7,29.78,South,184,2.2,2.5,83,0.00,,,0.00,WUHU216HW,2013-05-22 07:25:00,
2013-05-22 03:26:00,69.1,63.7,29.78,SW,225,1.8,2.5,83,0.00,,,0.00,WUHU216HW,2013-05-22 07:26:00,
2013-05-22 03:27:00,69.1,63.7,29.78,SSW,203,2.2,2.5,83,0.00,,,0.00,WUHU216HW,2013-05-22 07:27:00,
2013-05-22 03:29:00,69.1,63.7,29.78,WSW,239,1.8,2.5,83,0.00,,,0.00,WUHU216HW,2013-05-22 07:29:00,
2013-05-22 03:30:00,69.1,63.7,29.78,South,180,2.9,2.9,83,0.00,,,0.00,WUHU216HW,2013-05-22 07:30:00,
2013-05-22 03:32:00,69.1,64.1,29.78,South,184,1.5,2.9,84,0.00,,,0.00,WUHU216HW,2013-05-22 07:32:00,
2013-05-22 03:33:00,69.1,63.7,29.78,SSE,158,2.2,2.9,83,0.00,,,0.00,WUHU216HW,2013-05-22 07:33:00,
2013-05-22 03:35:00,69.1,63.7,29.78,SSE,158,2.0,2.9,83,0.00,,,0.00,WUHU216HW,2013-05-22 07:35:00,
2013-05-22 03:36:00,69.1,63.7,29.78,SSW,203,3.4,3.4,83,0.00,,,0.00,WUHU216HW,2013-05-22 07:36:00,
2013-05-22 03:37:00,68.9,63.5,29.78,SSW,210,2.6,3.4,83,0.00,,,0.00,WUHU216HW,2013-05-22 07:37:00,
2013-05-22 03:38:00,68.9,63.5,29.78,SSE,158,3.4,3.4,83,0.00,,,0.00,WUHU216HW,2013-05-22 07:38:00,
2013-05-22 03:39:00,68.9,63.9,29.78,South,178,2.5,3.4,84,0.00,,,0.00,WUHU216HW,2013-05-22 07:39:00,
2013-05-22 03:40:00,68.9,63.9,29.78,ESE,113,2.2,3.4,84,0.00,,,0.00,WUHU216HW,2013-05-22 07:40:00,
2013-05-22 03:41:00,68.9,63.9,29.78,South,180,2.5,3.4,84,0.00,,,0.00,WUHU216HW,2013-05-22 07:41:00,
2013-05-22 03:43:00,69.1,64.1,29.78,SW,225,3.4,3.4,84,0.00,,,0.00,WUHU216HW,2013-05-22 07:43:00,
2013-05-22 03:44:00,69.1,64.1,29.79,South,180,3.8,3.8,84,0.00,,,0.00,WUHU216HW,2013-05-22 07:44:00,
2013-05-22 03:45:00,69.1,64.1,29.78,SE,135,4.0,4.0,84,0.00,,,0.00,WUHU216HW,2013-05-22 07:45:00,
2013-05-22 03:46:00,69.1,64.1,29.79,SSE,158,3.1,4.0,84,0.00,,,0.00,WUHU216HW,2013-05-22 07:46:00,
2013-05-22 03:47:00,69.1,64.1,29.78,SSE,158,2.5,4.0,84,0.00,,,0.00,WUHU216HW,2013-05-22 07:47:00,
2013-05-22 03:48:00,69.3,63.9,29.78,South,169,1.7,4.0,83,0.00,,,0.00,WUHU216HW,2013-05-22 07:48:00,
2013-05-22 03:49:00,69.3,63.9,29.79,SE,135,1.8,4.0,83,0.00,,,0.00,WUHU216HW,2013-05-22 07:49:00,
2013-05-22 03:50:00,69.3,63.9,29.79,South,180,2.5,4.0,83,0.00,,,0.00,WUHU216HW,2013-05-22 07:50:00,
2013-05-22 03:52:00,69.3,63.9,29.79,South,180,4.5,4.5,83,0.00,,,0.00,WUHU216HW,2013-05-22 07:52:00,
2013-05-22 03:54:00,69.3,63.9,29.79,WSW,248,1.3,4.5,83,0.00,,,0.00,WUHU216HW,2013-05-22 07:54:00,
2013-05-22 03:55:00,69.1,64.1,29.79,SSW,203,2.5,4.5,84,0.00,,,0.00,WUHU216HW,2013-05-22 07:55:00,
2013-05-22 03:57:00,69.1,63.7,29.79,SSE,151,1.0,4.5,83,0.00,,,0.00,WUHU216HW,2013-05-22 07:57:00,
2013-05-22 03:58:00,69.1,63.7,29.79,SE,135,2.0,4.5,83,0.00,,,0.00,WUHU216HW,2013-05-22 07:58:00,
2013-05-22 04:00:00,69.1,63.7,29.79,South,180,1.8,4.5,83,0.00,,,0.00,WUHU216HW,2013-05-22 08:00:00,
2013-05-22 04:02:00,69.1,63.7,29.79,SSW,203,3.8,3.8,83,0.00,,,0.00,WUHU216HW,2013-05-22 08:02:00,
2013-05-22 04:03:00,69.1,63.7,29.79,SSW,194,3.2,3.8,83,0.00,,,0.00,WUHU216HW,2013-05-22 08:03:00,
2013-05-22 04:04:00,69.1,63.7,29.79,SSE,158,2.5,3.8,83,0.00,,,0.00,WUHU216HW,2013-05-22 08:04:00,
2013-05-22 04:06:00,68.9,63.5,29.79,SSW,203,3.8,3.8,83,0.00,,,0.00,WUHU216HW,2013-05-22 08:06:00,
2013-05-22 04:07:00,68.9,63.5,29.79,SSW,192,3.7,3.8,83,0.00,,,0.00,WUHU216HW,2013-05-22 08:07:00,
2013-05-22 04:09:00,68.9,63.5,29.79,SSE,157,2.6,3.8,83,0.00,,,0.00,WUHU216HW,2013-05-22 08:09:00,
2013-05-22 04:11:00,68.9,63.5,29.79,SSW,203,0.7,3.8,83,0.00,,,0.00,WUHU216HW,2013-05-22 08:11:00,
2013-05-22 04:12:00,68.9,63.5,29.79,SSW,203,0.7,3.8,83,0.00,,,0.00,WUHU216HW,2013-05-22 08:12:00,
2013-05-22 04:15:00,68.9,63.5,29.80,SSW,203,1.8,3.8,83,0.00,,,0.00,WUHU216HW,2013-05-22 08:15:00,
2013-05-22 04:16:00,68.8,63.4,29.79,SSW,203,1.8,3.6,83,0.00,,,0.00,WUHU216HW,2013-05-22 08:16:00,
2013-05-22 04:17:00,68.8,63.4,29.79,SW,225,0.0,3.4,83,0.00,,,0.00,WUHU216HW,2013-05-22 08:17:00,
2013-05-22 04:18:00,68.8,63.4,29.79,SW,225,0.0,2.5,83,0.00,,,0.00,WUHU216HW,2013-05-22 08:18:00,
2013-05-22 04:20:00,68.8,63.4,29.79,SW,225,0.0,1.8,83,0.00,,,0.00,WUHU216HW,2013-05-22 08:20:00,
2013-05-22 04:21:00,68.8,63.4,29.79,SW,225,0.0,1.8,83,0.00,,,0.00,WUHU216HW,2013-05-22 08:21:00,
2013-05-22 04:22:00,68.8,63.4,29.79,SW,225,0.0,1.8,83,0.00,,,0.00,WUHU216HW,2013-05-22 08:22:00,
2013-05-22 04:23:00,68.8,63.4,29.79,SW,225,0.0,1.8,83,0.00,,,0.00,WUHU216HW,2013-05-22 08:23:00,
2013-05-22 04:46:00,68.2,63.2,29.81,South,180,0.0,0.0,84,0.00,,,0.00,WUHU216HW,2013-05-22 08:46:00,
2013-05-22 04:47:00,68.2,63.2,29.81,South,180,0.0,0.0,84,0.00,,,0.00,WUHU216HW,2013-05-22 08:47:00,
2013-05-22 04:51:00,67.9,62.8,29.81,SSE,158,0.2,0.2,84,0.00,,,0.00,WUHU216HW,2013-05-22 08:51:00,
2013-05-22 04:52:00,67.9,62.8,29.81,SSE,158,0.2,0.2,84,0.00,,,0.00,WUHU216HW,2013-05-22 08:52:00,
2013-05-22 04:53:00,67.7,62.6,29.81,SSE,158,0.2,0.2,84,0.00,,,0.00,WUHU216HW,2013-05-22 08:53:00,
2013-05-22 04:54:00,67.7,62.6,29.81,SE,135,0.9,0.9,84,0.00,,,0.00,WUHU216HW,2013-05-22 08:54:00,
2013-05-22 04:57:00,67.5,62.8,29.80,SE,135,2.0,2.0,85,0.00,,,0.00,WUHU216HW,2013-05-22 08:57:00,
2013-05-22 04:58:00,67.5,62.8,29.80,SE,124,1.9,2.0,85,0.00,,,0.00,WUHU216HW,2013-05-22 08:58:00,
2013-05-22 04:59:00,67.5,62.8,29.80,ESE,122,1.5,2.0,85,0.00,,,0.00,WUHU216HW,2013-05-22 08:59:00,
2013-05-22 05:03:00,67.5,63.2,29.80,SE,135,3.1,3.1,86,0.00,,,0.00,WUHU216HW,2013-05-22 09:03:00,
2013-05-22 05:04:00,67.5,63.2,29.80,SE,125,2.9,3.1,86,0.00,,,0.00,WUHU216HW,2013-05-22 09:04:00,
2013-05-22 05:05:00,67.5,63.2,29.80,ESE,116,1.6,3.1,86,0.00,,,0.00,WUHU216HW,2013-05-22 09:05:00,
2013-05-22 05:08:00,67.7,63.4,29.80,ESE,113,3.6,3.6,86,0.00,,,0.00,WUHU216HW,2013-05-22 09:08:00,
2013-05-22 05:09:00,67.7,63.4,29.80,ESE,113,3.6,3.6,86,0.00,,,0.00,WUHU216HW,2013-05-22 09:09:00,
2013-05-22 05:10:00,67.7,63.4,29.80,SSE,158,4.5,4.5,86,0.00,,,0.00,WUHU216HW,2013-05-22 09:10:00,
2013-05-22 05:11:00,67.7,63.4,29.80,SSE,158,4.2,4.5,86,0.00,,,0.00,WUHU216HW,2013-05-22 09:11:00,
2013-05-22 05:14:00,67.9,63.6,29.80,SSW,203,3.4,4.5,86,0.00,,,0.00,WUHU216HW,2013-05-22 09:14:00,
2013-05-22 05:16:00,68.0,63.7,29.80,South,180,2.2,4.5,86,0.00,,,0.00,WUHU216HW,2013-05-22 09:16:00,
2013-05-22 05:19:00,68.0,63.7,29.80,SSW,203,4.0,4.5,86,0.00,,,0.00,WUHU216HW,2013-05-22 09:19:00,
2013-05-22 05:20:00,68.0,63.7,29.80,South,181,2.8,4.0,86,0.00,,,0.00,WUHU216HW,2013-05-22 09:20:00,
2013-05-22 05:21:00,68.0,63.7,29.80,SE,135,1.8,4.0,86,0.00,,,0.00,WUHU216HW,2013-05-22 09:21:00,
2013-05-22 05:22:00,68.0,63.7,29.80,SSE,156,1.3,4.0,86,0.00,,,0.00,WUHU216HW,2013-05-22 09:22:00,
2013-05-22 05:25:00,68.0,63.7,29.80,SE,135,0.7,4.0,86,0.00,,,0.00,WUHU216HW,2013-05-22 09:25:00,
2013-05-22 05:26:00,68.0,63.7,29.80,SSE,158,2.0,4.0,86,0.00,,,0.00,WUHU216HW,2013-05-22 09:26:00,
2013-05-22 05:27:00,68.0,63.7,29.80,SSW,203,2.5,4.0,86,0.00,,,0.00,WUHU216HW,2013-05-22 09:27:00,
2013-05-22 05:31:00,68.0,63.7,29.80,SSE,158,3.4,3.4,86,0.00,,,0.00,WUHU216HW,2013-05-22 09:31:00,
2013-05-22 05:32:00,68.0,63.7,29.80,SSE,158,3.4,3.4,86,0.00,,,0.00,WUHU216HW,2013-05-22 09:32:00,
2013-05-22 05:36:00,68.0,63.7,29.80,SSE,153,2.9,4.7,86,0.00,,,0.00,WUHU216HW,2013-05-22 09:36:00,
2013-05-22 05:37:00,68.0,63.7,29.80,SSE,153,2.9,4.7,86,0.00,,,0.00,WUHU216HW,2013-05-22 09:37:00,
2013-05-22 05:38:00,68.0,63.7,29.80,South,180,3.4,4.7,86,0.00,,,0.00,WUHU216HW,2013-05-22 09:38:00,
2013-05-22 05:42:00,68.0,63.7,29.80,SE,135,1.1,4.7,86,0.00,,,0.00,WUHU216HW,2013-05-22 09:42:00,
2013-05-22 05:43:00,68.0,63.7,29.81,SSE,158,2.2,4.7,86,0.00,,,0.00,WUHU216HW,2013-05-22 09:43:00,
2013-05-22 05:45:00,68.0,63.7,29.81,SE,141,1.5,4.7,86,0.00,,,0.00,WUHU216HW,2013-05-22 09:45:00,
2013-05-22 05:47:00,68.0,63.7,29.80,ESE,113,1.6,3.4,86,0.00,,,0.00,WUHU216HW,2013-05-22 09:47:00,
2013-05-22 05:48:00,68.0,63.7,29.81,SE,135,1.1,2.2,86,0.00,,,0.00,WUHU216HW,2013-05-22 09:48:00,
2013-05-22 05:49:00,68.0,63.7,29.80,SE,135,2.2,2.2,86,0.00,,,0.00,WUHU216HW,2013-05-22 09:49:00,
2013-05-22 05:50:00,68.0,63.7,29.80,SE,135,1.9,2.2,86,0.00,,,0.00,WUHU216HW,2013-05-22 09:50:00,
2013-05-22 05:52:00,68.0,63.7,29.80,SSE,158,1.5,2.2,86,0.00,,,0.00,WUHU216HW,2013-05-22 09:52:00,
2013-05-22 05:54:00,68.0,63.7,29.81,SE,135,3.1,3.1,86,0.00,,,0.00,WUHU216HW,2013-05-22 09:54:00,
2013-05-22 05:55:00,68.0,63.7,29.81,SSE,149,2.0,3.1,86,0.00,,,0.00,WUHU216HW,2013-05-22 09:55:00,
2013-05-22 05:56:00,68.0,63.7,29.81,SSE,158,1.1,3.1,86,0.00,,,0.00,WUHU216HW,2013-05-22 09:56:00,
2013-05-22 05:59:00,67.9,63.8,29.80,South,180,1.8,3.1,87,0.00,,,0.00,WUHU216HW,2013-05-22 09:59:00,
2013-05-22 06:01:00,67.9,63.8,29.80,SE,135,1.1,3.1,87,0.00,,,0.00,WUHU216HW,2013-05-22 10:01:00,
2013-05-22 06:02:00,67.9,63.8,29.80,ESE,113,2.2,3.1,87,0.00,,,0.00,WUHU216HW,2013-05-22 10:02:00,
2013-05-22 06:04:00,67.7,63.6,29.80,SSW,203,2.0,2.7,87,0.00,,,0.00,WUHU216HW,2013-05-22 10:04:00,
2013-05-22 06:05:00,67.7,63.6,29.80,SSW,203,2.0,2.7,87,0.00,,,0.00,WUHU216HW,2013-05-22 10:05:00,
2013-05-22 06:06:00,67.7,63.6,29.81,SW,225,2.0,2.7,87,0.00,,,0.00,WUHU216HW,2013-05-22 10:06:00,
2013-05-22 06:07:00,67.7,63.6,29.81,SW,221,1.2,2.2,87,0.00,,,0.00,WUHU216HW,2013-05-22 10:07:00,
2013-05-22 06:08:00,67.7,63.6,29.80,SSE,158,0.9,2.2,87,0.00,,,0.00,WUHU216HW,2013-05-22 10:08:00,
2013-05-22 06:11:00,67.5,63.5,29.81,SW,225,1.3,2.2,87,0.00,,,0.00,WUHU216HW,2013-05-22 10:11:00,
2013-05-22 06:12:00,67.5,63.5,29.81,SSW,197,1.0,2.0,87,0.00,,,0.00,WUHU216HW,2013-05-22 10:12:00,
2013-05-22 06:14:00,67.5,63.5,29.81,SSW,203,2.0,2.0,87,0.00,,,0.00,WUHU216HW,2013-05-22 10:14:00,
2013-05-22 06:16:00,67.5,63.5,29.81,SSW,203,2.0,2.0,87,0.00,,,0.00,WUHU216HW,2013-05-22 10:16:00,
2013-05-22 06:17:00,67.5,63.5,29.81,SSW,203,2.0,2.0,87,0.00,,,0.00,WUHU216HW,2013-05-22 10:17:00,
2013-05-22 06:18:00,67.5,63.5,29.81,SSW,203,2.0,2.0,87,0.00,,,0.00,WUHU216HW,2013-05-22 10:18:00,
2013-05-22 06:19:00,67.5,63.5,29.81,SSW,203,2.0,2.0,87,0.00,,,0.00,WUHU216HW,2013-05-22 10:19:00,
2013-05-22 06:22:00,67.5,63.5,29.81,SSW,203,2.0,2.0,87,0.00,,,0.00,WUHU216HW,2013-05-22 10:22:00,
2013-05-22 06:43:00,66.8,63.1,29.81,SE,135,0.7,0.7,88,0.00,,,0.00,WUHU216HW,2013-05-22 10:43:00,
2013-05-22 06:45:00,67.0,63.3,29.82,SE,142,2.0,2.2,88,0.00,,,0.00,WUHU216HW,2013-05-22 10:45:00,
2013-05-22 06:48:00,67.0,63.3,29.81,SSE,158,0.8,2.2,88,0.00,,,0.00,WUHU216HW,2013-05-22 10:48:00,
2013-05-22 06:49:00,67.0,63.3,29.81,SE,135,1.8,2.2,88,0.00,,,0.00,WUHU216HW,2013-05-22 10:49:00,
2013-05-22 06:50:00,67.0,63.3,29.81,SE,146,1.7,2.2,88,0.00,,,0.00,WUHU216HW,2013-05-22 10:50:00,
2013-05-22 06:52:00,67.0,63.3,29.81,SSE,163,1.5,2.5,88,0.00,,,0.00,WUHU216HW,2013-05-22 10:52:00,
2013-05-22 06:54:00,67.1,63.5,29.81,South,186,2.2,2.7,88,0.00,,,0.00,WUHU216HW,2013-05-22 10:54:00,
2013-05-22 06:55:00,67.1,63.5,29.82,SSE,166,1.3,2.7,88,0.00,,,0.00,WUHU216HW,2013-05-22 10:55:00,
2013-05-22 06:56:00,67.1,63.5,29.81,SSW,193,0.6,2.7,88,0.00,,,0.00,WUHU216HW,2013-05-22 10:56:00,
2013-05-22 07:00:00,67.3,63.6,29.82,SSE,158,1.1,2.7,88,0.00,,,0.00,WUHU216HW,2013-05-22 11:00:00,
2013-05-22 07:01:00,67.3,63.6,29.82,SSE,158,0.7,2.7,88,0.00,,,0.00,WUHU216HW,2013-05-22 11:01:00,
2013-05-22 07:02:00,67.3,63.6,29.82,SSE,158,0.2,2.7,88,0.00,,,0.00,WUHU216HW,2013-05-22 11:02:00,
2013-05-22 07:05:00,67.3,63.6,29.82,SSW,203,1.1,1.1,88,0.00,,,0.00,WUHU216HW,2013-05-22 11:05:00,
2013-05-22 07:06:00,67.5,63.8,29.82,SSW,203,1.1,1.1,88,0.00,,,0.00,WUHU216HW,2013-05-22 11:06:00,
2013-05-22 07:07:00,67.5,63.8,29.82,SSW,203,0.0,1.1,88,0.00,,,0.00,WUHU216HW,2013-05-22 11:07:00,
2013-05-22 07:08:00,67.5,63.8,29.82,SSW,203,0.0,1.1,88,0.00,,,0.00,WUHU216HW,2013-05-22 11:08:00,
2013-05-22 07:11:00,67.5,63.8,29.82,SSW,203,0.0,1.1,88,0.00,,,0.00,WUHU216HW,2013-05-22 11:11:00,
2013-05-22 07:12:00,67.5,63.8,29.82,SSW,203,0.0,1.1,88,0.00,,,0.00,WUHU216HW,2013-05-22 11:12:00,
2013-05-22 07:13:00,67.5,63.8,29.82,SSW,203,0.0,1.1,88,0.00,,,0.00,WUHU216HW,2013-05-22 11:13:00,
2013-05-22 07:14:00,67.5,63.8,29.82,SSW,203,0.0,1.1,88,0.00,,,0.00,WUHU216HW,2013-05-22 11:14:00,
2013-05-22 07:16:00,67.5,63.8,29.82,SSW,203,0.0,0.0,88,0.00,,,0.00,WUHU216HW,2013-05-22 11:16:00,
2013-05-22 07:17:00,67.5,63.8,29.82,SSW,203,0.0,0.0,88,0.00,,,0.00,WUHU216HW,2013-05-22 11:17:00,
2013-05-22 07:18:00,67.5,63.8,29.82,SSW,203,0.0,0.0,88,0.00,,,0.00,WUHU216HW,2013-05-22 11:18:00,
2013-05-22 07:39:00,69.8,65.8,29.82,SE,135,1.1,1.1,87,0.00,,,0.00,WUHU216HW,2013-05-22 11:39:00,
2013-05-22 07:40:00,69.8,65.8,29.82,South,180,1.1,1.1,87,0.00,,,0.00,WUHU216HW,2013-05-22 11:40:00,
2013-05-22 07:44:00,70.2,65.8,29.82,SSE,158,2.0,2.0,86,0.00,,,0.00,WUHU216HW,2013-05-22 11:44:00,
2013-05-22 07:45:00,70.2,65.8,29.82,SSE,158,1.9,2.0,86,0.00,,,0.00,WUHU216HW,2013-05-22 11:45:00,
2013-05-22 07:46:00,70.2,65.8,29.82,South,180,2.5,2.5,86,0.00,,,0.00,WUHU216HW,2013-05-22 11:46:00,
2013-05-22 07:50:00,70.6,66.2,29.82,SE,135,1.8,2.5,86,0.00,,,0.00,WUHU216HW,2013-05-22 11:50:00,
2013-05-22 07:51:00,70.6,66.2,29.82,SE,135,1.8,2.5,86,0.00,,,0.00,WUHU216HW,2013-05-22 11:51:00,
2013-05-22 07:54:00,71.1,66.7,29.82,East,90,1.8,2.5,86,0.00,,,0.00,WUHU216HW,2013-05-22 11:54:00,
2013-05-22 07:55:00,71.1,66.3,29.82,SSE,158,2.7,2.7,85,0.00,,,0.00,WUHU216HW,2013-05-22 11:55:00,
2013-05-22 07:56:00,71.3,66.5,29.82,SSE,149,2.3,2.7,85,0.00,,,0.00,WUHU216HW,2013-05-22 11:56:00,
2013-05-22 07:57:00,71.3,66.5,29.82,SE,135,1.8,2.7,85,0.00,,,0.00,WUHU216HW,2013-05-22 11:57:00,
2013-05-22 08:00:00,71.5,66.3,29.82,SSE,158,2.0,4.0,84,0.00,,,0.00,WUHU216HW,2013-05-22 12:00:00,
2013-05-22 08:01:00,71.5,66.3,29.82,SE,135,2.0,4.0,84,0.00,,,0.00,WUHU216HW,2013-05-22 12:01:00,
2013-05-22 08:02:00,71.5,66.3,29.82,SE,124,1.9,4.0,84,0.00,,,0.00,WUHU216HW,2013-05-22 12:02:00,
2013-05-22 08:03:00,71.6,66.5,29.82,SE,135,3.4,4.0,84,0.00,,,0.00,WUHU216HW,2013-05-22 12:03:00,
2013-05-22 08:06:00,71.8,66.7,29.82,SSE,158,3.4,4.0,84,0.00,,,0.00,WUHU216HW,2013-05-22 12:06:00,
2013-05-22 08:07:00,72.0,66.9,29.82,SSE,150,2.5,4.0,84,0.00,,,0.00,WUHU216HW,2013-05-22 12:07:00,
2013-05-22 08:08:00,72.0,66.9,29.82,SE,135,2.2,3.4,84,0.00,,,0.00,WUHU216HW,2013-05-22 12:08:00,
2013-05-22 08:09:00,72.2,67.1,29.82,SE,145,2.0,3.4,84,0.00,,,0.00,WUHU216HW,2013-05-22 12:09:00,
2013-05-22 08:11:00,72.4,67.2,29.82,SE,135,0.7,3.4,84,0.00,,,0.00,WUHU216HW,2013-05-22 12:11:00,
2013-05-22 08:12:00,72.7,67.2,29.82,SE,135,0.4,3.4,83,0.00,,,0.00,WUHU216HW,2013-05-22 12:12:00,
2013-05-22 08:13:00,72.7,67.2,29.82,SSW,203,1.1,3.4,83,0.00,,,0.00,WUHU216HW,2013-05-22 12:13:00,
2013-05-22 08:14:00,72.9,67.8,29.82,SW,214,0.8,3.4,84,0.00,,,0.00,WUHU216HW,2013-05-22 12:14:00,
2013-05-22 08:17:00,73.6,68.5,29.83,SE,135,1.8,2.2,84,0.00,,,0.00,WUHU216HW,2013-05-22 12:17:00,
2013-05-22 08:19:00,74.0,68.5,29.82,SSE,158,1.1,1.8,83,0.00,,,0.00,WUHU216HW,2013-05-22 12:19:00,
2013-05-22 08:22:00,74.7,69.2,29.83,SE,135,0.8,1.8,83,0.00,,,0.00,WUHU216HW,2013-05-22 12:22:00,
2013-05-22 08:23:00,75.1,69.3,29.83,SE,135,1.6,1.8,82,0.00,,,0.00,WUHU216HW,2013-05-22 12:23:00,
2013-05-22 08:24:00,75.4,69.6,29.83,ESE,113,1.6,1.8,82,0.00,,,0.00,WUHU216HW,2013-05-22 12:24:00,
2013-05-22 08:28:00,75.6,68.3,29.82,ENE,74,2.0,3.4,78,0.00,,,0.00,WUHU216HW,2013-05-22 12:28:00,
2013-05-22 08:29:00,75.4,68.1,29.82,ENE,68,2.0,3.4,78,0.00,,,0.00,WUHU216HW,2013-05-22 12:29:00,
2013-05-22 08:30:00,75.4,68.1,29.82,ENE,68,1.8,3.4,78,0.00,,,0.00,WUHU216HW,2013-05-22 12:30:00,
2013-05-22 08:31:00,75.4,68.5,29.82,SE,135,2.2,3.4,79,0.00,,,0.00,WUHU216HW,2013-05-22 12:31:00,
2013-05-22 08:33:00,75.4,68.5,29.82,ESE,113,1.8,3.4,79,0.00,,,0.00,WUHU216HW,2013-05-22 12:33:00,
2013-05-22 08:34:00,75.4,68.5,29.82,East,90,3.4,3.4,79,0.00,,,0.00,WUHU216HW,2013-05-22 12:34:00,
2013-05-22 08:35:00,75.4,68.5,29.82,East,90,3.4,3.4,79,0.00,,,0.00,WUHU216HW,2013-05-22 12:35:00,
2013-05-22 08:37:00,75.4,68.5,29.82,East,99,2.3,3.4,79,0.00,,,0.00,WUHU216HW,2013-05-22 12:37:00,
2013-05-22 08:39:00,75.4,68.1,29.82,East,90,3.7,4.7,78,0.00,,,0.00,WUHU216HW,2013-05-22 12:39:00,
2013-05-22 08:40:00,75.2,68.0,29.82,East,98,1.6,4.7,78,0.00,,,0.00,WUHU216HW,2013-05-22 12:40:00,
2013-05-22 08:43:00,75.2,68.4,29.82,ESE,113,3.4,4.7,79,0.00,,,0.00,WUHU216HW,2013-05-22 12:43:00,
2013-05-22 08:44:00,75.2,68.4,29.82,ESE,113,2.3,4.7,79,0.00,,,0.00,WUHU216HW,2013-05-22 12:44:00,
2013-05-22 08:45:00,75.2,68.4,29.82,ESE,113,2.3,4.7,79,0.00,,,0.00,WUHU216HW,2013-05-22 12:45:00,
2013-05-22 08:46:00,75.2,68.4,29.82,ESE,102,2.1,4.7,79,0.00,,,0.00,WUHU216HW,2013-05-22 12:46:00,
2013-05-22 08:50:00,75.2,68.4,29.81,ESE,113,3.8,3.8,79,0.00,,,0.00,WUHU216HW,2013-05-22 12:50:00,
2013-05-22 08:51:00,75.2,68.0,29.81,SE,129,3.0,4.5,78,0.00,,,0.00,WUHU216HW,2013-05-22 12:51:00,
2013-05-22 08:52:00,75.4,68.1,29.81,SE,135,3.8,4.5,78,0.00,,,0.00,WUHU216HW,2013-05-22 12:52:00,
2013-05-22 08:56:00,75.6,68.3,29.81,East,90,2.0,4.5,78,0.00,,,0.00,WUHU216HW,2013-05-22 12:56:00,
2013-05-22 08:57:00,75.6,68.3,29.81,SE,135,3.6,4.9,78,0.00,,,0.00,WUHU216HW,2013-05-22 12:57:00,
2013-05-22 09:01:00,75.8,68.5,29.81,ESE,113,2.8,6.7,78,0.00,,,0.00,WUHU216HW,2013-05-22 13:01:00,
2013-05-22 09:02:00,75.8,68.5,29.81,SSE,158,4.3,6.7,78,0.00,,,0.00,WUHU216HW,2013-05-22 13:02:00,
2013-05-22 09:03:00,76.0,68.7,29.82,SE,134,3.4,6.7,78,0.00,,,0.00,WUHU216HW,2013-05-22 13:03:00,
2013-05-22 09:06:00,76.3,68.9,29.81,ESE,113,1.8,6.7,78,0.00,,,0.00,WUHU216HW,2013-05-22 13:06:00,
2013-05-22 09:07:00,76.3,68.9,29.82,ENE,68,4.5,6.7,78,0.00,,,0.00,WUHU216HW,2013-05-22 13:07:00,
2013-05-22 09:08:00,76.5,69.1,29.82,ESE,119,4.3,4.5,78,0.00,,,0.00,WUHU216HW,2013-05-22 13:08:00,
2013-05-22 09:09:00,76.7,69.0,29.82,South,169,2.5,4.5,77,0.00,,,0.00,WUHU216HW,2013-05-22 13:09:00,
2013-05-22 09:11:00,76.7,69.0,29.82,ESE,113,4.0,4.5,77,0.00,,,0.00,WUHU216HW,2013-05-22 13:11:00,
2013-05-22 09:13:00,76.7,69.0,29.82,East,90,3.8,4.5,77,0.00,,,0.00,WUHU216HW,2013-05-22 13:13:00,
2013-05-22 09:14:00,76.7,69.0,29.82,East,90,3.8,4.5,77,0.00,,,0.00,WUHU216HW,2013-05-22 13:14:00,
2013-05-22 09:15:00,76.9,69.1,29.82,SE,135,4.7,4.7,77,0.00,,,0.00,WUHU216HW,2013-05-22 13:15:00,
2013-05-22 09:17:00,77.0,69.2,29.82,SSE,148,4.1,4.7,77,0.00,,,0.00,WUHU216HW,2013-05-22 13:17:00,
2013-05-22 09:18:00,77.2,69.4,29.82,SSE,158,5.4,5.4,77,0.00,,,0.00,WUHU216HW,2013-05-22 13:18:00,
2013-05-22 09:19:00,77.4,69.2,29.82,SSE,149,4.4,5.4,76,0.00,,,0.00,WUHU216HW,2013-05-22 13:19:00,
2013-05-22 09:22:00,77.6,69.0,29.82,SSE,159,5.2,6.5,75,0.00,,,0.00,WUHU216HW,2013-05-22 13:22:00,
2013-05-22 09:24:00,77.6,69.0,29.82,SE,135,5.4,6.5,75,0.00,,,0.00,WUHU216HW,2013-05-22 13:24:00,
2013-05-22 09:25:00,77.8,69.2,29.82,SE,135,7.2,7.2,75,0.00,,,0.00,WUHU216HW,2013-05-22 13:25:00,
2013-05-22 09:28:00,77.8,68.8,29.82,SSE,158,7.6,7.6,74,0.00,,,0.00,WUHU216HW,2013-05-22 13:28:00,
2013-05-22 09:29:00,77.8,68.8,29.82,SE,135,6.3,7.6,74,0.00,,,0.00,WUHU216HW,2013-05-22 13:29:00,
2013-05-22 09:31:00,77.6,68.2,29.82,East,90,6.5,7.6,73,0.00,,,0.00,WUHU216HW,2013-05-22 13:31:00,
2013-05-22 09:33:00,77.4,68.0,29.81,ESE,113,6.3,7.6,73,0.00,,,0.00,WUHU216HW,2013-05-22 13:33:00,
2013-05-22 09:34:00,77.4,68.5,29.81,SE,135,8.1,8.1,74,0.00,,,0.00,WUHU216HW,2013-05-22 13:34:00,
2013-05-22 09:36:00,77.4,68.5,29.81,SSE,160,4.2,8.1,74,0.00,,,0.00,WUHU216HW,2013-05-22 13:36:00,
2013-05-22 09:38:00,77.6,68.6,29.81,SE,135,4.0,8.1,74,0.00,,,0.00,WUHU216HW,2013-05-22 13:38:00,
2013-05-22 09:39:00,77.6,68.6,29.81,SSE,156,7.1,8.1,74,0.00,,,0.00,WUHU216HW,2013-05-22 13:39:00,
2013-05-22 09:42:00,77.8,68.8,29.81,SSE,158,5.6,8.1,74,0.00,,,0.00,WUHU216HW,2013-05-22 13:42:00,
2013-05-22 09:43:00,78.1,69.1,29.81,East,90,5.8,8.1,74,0.00,,,0.00,WUHU216HW,2013-05-22 13:43:00,
2013-05-22 09:45:00,78.3,69.3,29.82,SE,135,3.5,7.4,74,0.00,,,0.00,WUHU216HW,2013-05-22 13:45:00,
2013-05-22 09:47:00,78.7,69.7,29.81,SSW,203,7.4,7.4,74,0.00,,,0.00,WUHU216HW,2013-05-22 13:47:00,
2013-05-22 09:48:00,78.7,69.2,29.81,South,186,5.9,7.4,73,0.00,,,0.00,WUHU216HW,2013-05-22 13:48:00,
2013-05-22 09:50:00,78.8,69.4,29.81,SSE,158,4.3,7.4,73,0.00,,,0.00,WUHU216HW,2013-05-22 13:50:00,
2013-05-22 09:51:00,78.8,69.4,29.81,SSE,148,3.7,7.4,73,0.00,,,0.00,WUHU216HW,2013-05-22 13:51:00,
2013-05-22 09:53:00,79.0,69.2,29.81,SSE,158,5.5,7.4,72,0.00,,,0.00,WUHU216HW,2013-05-22 13:53:00,
2013-05-22 09:54:00,79.0,69.2,29.81,SSE,158,5.5,7.4,72,0.00,,,0.00,WUHU216HW,2013-05-22 13:54:00,
2013-05-22 09:55:00,79.0,69.2,29.81,SSE,158,6.3,7.4,72,0.00,,,0.00,WUHU216HW,2013-05-22 13:55:00,
2013-05-22 09:56:00,79.2,69.4,29.82,SSE,151,4.4,7.4,72,0.00,,,0.00,WUHU216HW,2013-05-22 13:56:00,
2013-05-22 09:58:00,79.4,69.1,29.81,SSE,158,5.1,6.3,71,0.00,,,0.00,WUHU216HW,2013-05-22 13:58:00,
2013-05-22 09:59:00,79.4,69.1,29.81,SSE,158,5.1,6.3,71,0.00,,,0.00,WUHU216HW,2013-05-22 13:59:00,
2013-05-22 10:01:00,79.4,69.6,29.81,SW,225,7.8,7.8,72,0.00,,,0.00,WUHU216HW,2013-05-22 14:01:00,
2013-05-22 10:04:00,79.6,69.3,29.81,SW,229,2.2,7.8,71,0.00,,,0.00,WUHU216HW,2013-05-22 14:04:00,
2013-05-22 10:05:00,79.6,69.3,29.81,SE,135,3.6,7.8,71,0.00,,,0.00,WUHU216HW,2013-05-22 14:05:00,
2013-05-22 10:06:00,79.4,69.1,29.81,SE,135,5.8,7.8,71,0.00,,,0.00,WUHU216HW,2013-05-22 14:06:00,
2013-05-22 10:07:00,79.4,69.1,29.82,SE,135,6.0,7.8,71,0.00,,,0.00,WUHU216HW,2013-05-22 14:07:00,
2013-05-22 10:08:00,79.4,69.1,29.81,SE,135,5.6,7.8,71,0.00,,,0.00,WUHU216HW,2013-05-22 14:08:00,
2013-05-22 10:09:00,79.4,69.1,29.81,SE,135,5.4,7.8,71,0.00,,,0.00,WUHU216HW,2013-05-22 14:09:00,
2013-05-22 10:11:00,79.2,68.6,29.81,SE,135,5.8,6.0,70,0.00,,,0.00,WUHU216HW,2013-05-22 14:11:00,
2013-05-22 10:12:00,79.0,68.8,29.82,SE,143,4.6,6.0,71,0.00,,,0.00,WUHU216HW,2013-05-22 14:12:00,
2013-05-22 10:13:00,79.0,68.8,29.81,SSE,158,2.2,6.0,71,0.00,,,0.00,WUHU216HW,2013-05-22 14:13:00,
2013-05-22 10:17:00,79.0,68.8,29.81,South,180,2.2,5.8,71,0.00,,,0.00,WUHU216HW,2013-05-22 14:17:00,
2013-05-22 10:18:00,79.0,68.8,29.81,South,180,2.2,5.8,71,0.00,,,0.00,WUHU216HW,2013-05-22 14:18:00,
2013-05-22 10:19:00,79.0,68.8,29.81,South,180,1.3,5.8,71,0.00,,,0.00,WUHU216HW,2013-05-22 14:19:00,
2013-05-22 10:22:00,79.0,68.8,29.81,South,180,1.3,5.4,71,0.00,,,0.00,WUHU216HW,2013-05-22 14:22:00,
2013-05-22 10:23:00,79.0,68.8,29.81,South,180,1.3,5.4,71,0.00,,,0.00,WUHU216HW,2013-05-22 14:23:00,
2013-05-22 10:24:00,79.0,68.8,29.81,South,180,1.3,5.4,71,0.00,,,0.00,WUHU216HW,2013-05-22 14:24:00,
2013-05-22 10:47:00,81.0,69.9,29.81,SSE,158,3.6,3.6,69,0.00,,,0.00,WUHU216HW,2013-05-22 14:47:00,
2013-05-22 10:48:00,81.2,70.0,29.81,SSE,154,2.1,3.6,69,0.00,,,0.00,WUHU216HW,2013-05-22 14:48:00,
2013-05-22 10:52:00,81.9,70.8,29.81,South,180,6.9,6.9,69,0.00,,,0.00,WUHU216HW,2013-05-22 14:52:00,
2013-05-22 10:53:00,81.9,70.8,29.81,South,180,6.9,6.9,69,0.00,,,0.00,WUHU216HW,2013-05-22 14:53:00,
2013-05-22 10:58:00,82.4,69.8,29.81,SSE,148,6.2,6.9,66,0.00,,,0.00,WUHU216HW,2013-05-22 14:58:00,
2013-05-22 10:59:00,82.4,69.8,29.81,SSE,167,5.2,6.9,66,0.00,,,0.00,WUHU216HW,2013-05-22 14:59:00,
2013-05-22 11:03:00,83.0,71.3,29.81,ESE,108,3.2,6.9,68,0.00,,,0.00,WUHU216HW,2013-05-22 15:03:00,
2013-05-22 11:04:00,83.2,71.0,29.81,SE,135,7.4,7.4,67,0.00,,,0.00,WUHU216HW,2013-05-22 15:04:00,
2013-05-22 11:06:00,83.3,70.3,29.81,SSE,158,6.7,7.4,65,0.00,,,0.00,WUHU216HW,2013-05-22 15:06:00,
2013-05-22 11:09:00,83.5,70.9,29.81,East,101,7.3,7.6,66,0.00,,,0.00,WUHU216HW,2013-05-22 15:09:00,
2013-05-22 11:10:00,83.5,70.9,29.81,ESE,122,5.8,7.6,66,0.00,,,0.00,WUHU216HW,2013-05-22 15:10:00,
2013-05-22 11:11:00,83.5,70.9,29.81,ENE,68,5.4,7.6,66,0.00,,,0.00,WUHU216HW,2013-05-22 15:11:00,
2013-05-22 11:14:00,83.7,70.7,29.81,SE,126,5.8,9.2,65,0.00,,,0.00,WUHU216HW,2013-05-22 15:14:00,
2013-05-22 11:15:00,83.7,70.7,29.81,SE,135,5.4,9.2,65,0.00,,,0.00,WUHU216HW,2013-05-22 15:15:00,
2013-05-22 11:16:00,83.7,70.2,29.81,SE,125,4.7,9.2,64,0.00,,,0.00,WUHU216HW,2013-05-22 15:16:00,
2013-05-22 11:17:00,83.7,70.7,29.81,SE,135,4.7,9.2,65,0.00,,,0.00,WUHU216HW,2013-05-22 15:17:00,
2013-05-22 11:20:00,83.9,70.8,29.81,South,184,5.9,9.2,65,0.00,,,0.00,WUHU216HW,2013-05-22 15:20:00,
2013-05-22 11:21:00,83.9,70.8,29.81,ENE,68,5.4,9.2,65,0.00,,,0.00,WUHU216HW,2013-05-22 15:21:00,
2013-05-22 11:22:00,83.9,70.8,29.81,ENE,68,5.4,8.5,65,0.00,,,0.00,WUHU216HW,2013-05-22 15:22:00,
2013-05-22 11:25:00,83.9,70.8,29.81,SSE,158,3.8,11.0,65,0.00,,,0.00,WUHU216HW,2013-05-22 15:25:00,
2013-05-22 11:27:00,84.2,71.2,29.81,South,170,3.0,11.0,65,0.00,,,0.00,WUHU216HW,2013-05-22 15:27:00,
2013-05-22 11:28:00,84.4,71.4,29.81,SSE,158,3.6,11.0,65,0.00,,,0.00,WUHU216HW,2013-05-22 15:28:00,
2013-05-22 11:30:00,85.0,71.9,29.81,South,175,4.3,11.0,65,0.00,,,0.00,WUHU216HW,2013-05-22 15:30:00,
2013-05-22 11:32:00,85.1,71.6,29.81,SSW,211,3.4,4.7,64,0.00,,,0.00,WUHU216HW,2013-05-22 15:32:00,
2013-05-22 11:33:00,85.1,71.1,29.81,South,180,5.8,5.8,63,0.00,,,0.00,WUHU216HW,2013-05-22 15:33:00,
2013-05-22 11:35:00,85.1,71.1,29.81,SE,135,2.9,5.8,63,0.00,,,0.00,WUHU216HW,2013-05-22 15:35:00,
2013-05-22 11:36:00,85.1,71.1,29.81,SE,135,2.9,5.8,63,0.00,,,0.00,WUHU216HW,2013-05-22 15:36:00,
2013-05-22 11:38:00,84.8,70.4,29.81,SE,124,6.3,6.5,62,0.00,,,0.00,WUHU216HW,2013-05-22 15:38:00,
2013-05-22 11:39:00,84.4,70.0,29.81,ESE,113,5.3,6.5,62,0.00,,,0.00,WUHU216HW,2013-05-22 15:39:00,
2013-05-22 11:41:00,84.4,70.0,29.81,ESE,123,4.3,6.5,62,0.00,,,0.00,WUHU216HW,2013-05-22 15:41:00,
2013-05-22 11:43:00,84.2,70.3,29.81,ESE,113,6.0,6.5,63,0.00,,,0.00,WUHU216HW,2013-05-22 15:43:00,
2013-05-22 11:44:00,84.2,70.3,29.81,ESE,113,6.0,6.5,63,0.00,,,0.00,WUHU216HW,2013-05-22 15:44:00,
2013-05-22 11:45:00,84.4,70.9,29.81,SE,126,3.9,6.5,64,0.00,,,0.00,WUHU216HW,2013-05-22 15:45:00,
2013-05-22 11:47:00,85.0,71.5,29.81,SE,135,5.6,6.5,64,0.00,,,0.00,WUHU216HW,2013-05-22 15:47:00,
2013-05-22 11:48:00,85.1,71.1,29.81,SSE,158,4.7,6.0,63,0.00,,,0.00,WUHU216HW,2013-05-22 15:48:00,
2013-05-22 11:49:00,85.1,71.1,29.81,SSE,158,4.7,6.0,63,0.00,,,0.00,WUHU216HW,2013-05-22 15:49:00,
2013-05-22 11:50:00,85.3,71.3,29.81,SSE,168,4.3,6.0,63,0.00,,,0.00,WUHU216HW,2013-05-22 15:50:00,
2013-05-22 11:52:00,85.5,71.5,29.81,East,90,2.5,6.0,63,0.00,,,0.00,WUHU216HW,2013-05-22 15:52:00,
2013-05-22 11:53:00,85.5,71.5,29.81,SW,225,3.1,5.6,63,0.00,,,0.00,WUHU216HW,2013-05-22 15:53:00,
2013-05-22 11:54:00,85.5,71.5,29.81,SW,225,3.1,5.6,63,0.00,,,0.00,WUHU216HW,2013-05-22 15:54:00,
2013-05-22 11:55:00,85.7,71.2,29.81,SW,215,2.8,5.6,62,0.00,,,0.00,WUHU216HW,2013-05-22 15:55:00,
2013-05-22 11:57:00,85.7,70.8,29.81,SE,144,2.5,4.7,61,0.00,,,0.00,WUHU216HW,2013-05-22 15:57:00,
2013-05-22 11:59:00,85.7,71.2,29.81,SSW,203,2.7,4.7,62,0.00,,,0.00,WUHU216HW,2013-05-22 15:59:00,
2013-05-22 12:00:00,86.0,71.5,29.81,ESE,113,2.5,4.7,62,0.00,,,0.00,WUHU216HW,2013-05-22 16:00:00,
2013-05-22 12:01:00,86.0,71.5,29.81,SSW,203,2.7,4.7,62,0.00,,,0.00,WUHU216HW,2013-05-22 16:01:00,
2013-05-22 12:03:00,86.2,71.2,29.81,SSE,158,3.8,4.9,61,0.00,,,0.00,WUHU216HW,2013-05-22 16:03:00,
2013-05-22 12:05:00,86.4,71.4,29.81,SE,135,6.9,6.9,61,0.00,,,0.00,WUHU216HW,2013-05-22 16:05:00,
2013-05-22 12:07:00,86.4,71.4,29.81,SE,135,6.9,6.9,61,0.00,,,0.00,WUHU216HW,2013-05-22 16:07:00,
2013-05-22 12:08:00,86.4,71.4,29.81,SE,135,6.9,6.9,61,0.00,,,0.00,WUHU216HW,2013-05-22 16:08:00,
2013-05-22 12:11:00,86.4,71.4,29.81,SE,135,6.9,6.9,61,0.00,,,0.00,WUHU216HW,2013-05-22 16:11:00,
2013-05-22 12:12:00,86.4,71.4,29.81,SE,135,6.9,6.9,61,0.00,,,0.00,WUHU216HW,2013-05-22 16:12:00,
2013-05-22 12:34:00,85.1,69.8,29.81,SW,225,6.0,6.0,60,0.00,,,0.00,WUHU216HW,2013-05-22 16:34:00,
2013-05-22 12:35:00,85.1,69.8,29.81,SW,235,3.7,6.0,60,0.00,,,0.00,WUHU216HW,2013-05-22 16:35:00,
2013-05-22 12:39:00,84.8,69.4,29.81,South,188,3.2,6.0,60,0.00,,,0.00,WUHU216HW,2013-05-22 16:39:00,
2013-05-22 12:40:00,85.0,69.6,29.81,South,180,2.7,6.0,60,0.00,,,0.00,WUHU216HW,2013-05-22 16:40:00,
2013-05-22 12:45:00,85.0,70.0,29.81,SSE,158,2.9,4.7,61,0.00,,,0.00,WUHU216HW,2013-05-22 16:45:00,
2013-05-22 12:46:00,84.8,69.8,29.81,SSW,203,4.9,4.9,61,0.00,,,0.00,WUHU216HW,2013-05-22 16:46:00,
2013-05-22 12:47:00,84.8,69.4,29.81,SE,135,6.5,6.5,60,0.00,,,0.00,WUHU216HW,2013-05-22 16:47:00,
2013-05-22 12:50:00,84.8,69.4,29.81,South,180,2.0,6.5,60,0.00,,,0.00,WUHU216HW,2013-05-22 16:50:00,
2013-05-22 12:51:00,84.8,69.4,29.81,SSE,158,2.5,6.5,60,0.00,,,0.00,WUHU216HW,2013-05-22 16:51:00,
2013-05-22 12:52:00,84.8,69.4,29.81,SSW,208,2.3,6.5,60,0.00,,,0.00,WUHU216HW,2013-05-22 16:52:00,
2013-05-22 12:56:00,85.1,69.8,29.81,SSW,203,3.1,6.5,60,0.00,,,0.00,WUHU216HW,2013-05-22 16:56:00,
2013-05-22 12:57:00,85.3,70.4,29.81,SW,219,2.1,3.6,61,0.00,,,0.00,WUHU216HW,2013-05-22 16:57:00,
2013-05-22 12:58:00,85.5,70.6,29.81,SW,225,4.7,4.7,61,0.00,,,0.00,WUHU216HW,2013-05-22 16:58:00,
2013-05-22 13:01:00,86.0,70.6,29.81,South,171,3.9,4.7,60,0.00,,,0.00,WUHU216HW,2013-05-22 17:01:00,
2013-05-22 13:02:00,86.2,70.7,29.81,SSE,158,2.8,4.7,60,0.00,,,0.00,WUHU216HW,2013-05-22 17:02:00,
2013-05-22 13:04:00,86.8,71.3,29.81,SSE,158,6.7,6.7,60,0.00,,,0.00,WUHU216HW,2013-05-22 17:04:00,
2013-05-22 13:07:00,86.9,69.8,29.81,South,180,6.7,6.7,57,0.00,,,0.00,WUHU216HW,2013-05-22 17:07:00,
2013-05-22 13:09:00,86.8,69.7,29.81,SSE,164,4.1,6.7,57,0.00,,,0.00,WUHU216HW,2013-05-22 17:09:00,
2013-05-22 13:10:00,86.9,69.8,29.81,SSE,158,5.4,6.7,57,0.00,,,0.00,WUHU216HW,2013-05-22 17:10:00,
2013-05-22 13:13:00,86.8,69.7,29.81,SSE,160,4.6,6.7,57,0.00,,,0.00,WUHU216HW,2013-05-22 17:13:00,
2013-05-22 13:15:00,86.8,69.1,29.81,SE,131,6.5,7.6,56,0.00,,,0.00,WUHU216HW,2013-05-22 17:15:00,
2013-05-22 13:16:00,86.8,69.1,29.81,SE,131,6.5,7.6,56,0.00,,,0.00,WUHU216HW,2013-05-22 17:16:00,
2013-05-22 13:19:00,86.6,69.5,29.81,SSE,158,1.6,7.6,57,0.00,,,0.00,WUHU216HW,2013-05-22 17:19:00,
2013-05-22 13:20:00,86.8,69.7,29.81,SSW,192,3.7,7.6,57,0.00,,,0.00,WUHU216HW,2013-05-22 17:20:00,
2013-05-22 13:22:00,86.8,69.1,29.80,SE,128,6.3,8.7,56,0.00,,,0.00,WUHU216HW,2013-05-22 17:22:00,
2013-05-22 13:24:00,86.9,69.3,29.80,SW,219,4.6,8.7,56,0.00,,,0.00,WUHU216HW,2013-05-22 17:24:00,
2013-05-22 13:26:00,86.9,69.3,29.80,SSE,161,3.3,8.7,56,0.00,,,0.00,WUHU216HW,2013-05-22 17:26:00,
2013-05-22 13:27:00,87.1,70.0,29.80,SSW,203,4.5,8.7,57,0.00,,,0.00,WUHU216HW,2013-05-22 17:27:00,
2013-05-22 13:28:00,87.1,69.5,29.80,SSW,203,4.3,8.7,56,0.00,,,0.00,WUHU216HW,2013-05-22 17:28:00,
2013-05-22 13:29:00,87.3,69.7,29.80,South,188,3.0,8.7,56,0.00,,,0.00,WUHU216HW,2013-05-22 17:29:00,
2013-05-22 13:31:00,87.7,70.6,29.80,South,180,5.8,5.8,57,0.00,,,0.00,WUHU216HW,2013-05-22 17:31:00,
2013-05-22 13:32:00,87.7,69.5,29.80,SSW,212,5.6,5.8,55,0.00,,,0.00,WUHU216HW,2013-05-22 17:32:00,
2013-05-22 13:33:00,87.7,69.5,29.80,SW,229,4.7,5.8,55,0.00,,,0.00,WUHU216HW,2013-05-22 17:33:00,
2013-05-22 13:35:00,87.7,69.5,29.80,SE,135,4.0,5.8,55,0.00,,,0.00,WUHU216HW,2013-05-22 17:35:00,
2013-05-22 13:37:00,87.7,68.9,29.80,SW,229,3.0,5.8,54,0.00,,,0.00,WUHU216HW,2013-05-22 17:37:00,
2013-05-22 13:38:00,87.5,68.2,29.80,SSW,203,9.8,9.8,53,0.00,,,0.00,WUHU216HW,2013-05-22 17:38:00,
2013-05-22 13:40:00,87.5,68.2,29.80,SSW,195,7.6,9.8,53,0.00,,,0.00,WUHU216HW,2013-05-22 17:40:00,
2013-05-22 13:42:00,87.3,68.0,29.80,SW,225,4.7,9.8,53,0.00,,,0.00,WUHU216HW,2013-05-22 17:42:00,
2013-05-22 13:45:00,87.3,68.0,29.80,SSE,167,3.8,9.8,53,0.00,,,0.00,WUHU216HW,2013-05-22 17:45:00,
2013-05-22 13:46:00,87.3,68.6,29.80,SSW,193,2.3,9.8,54,0.00,,,0.00,WUHU216HW,2013-05-22 17:46:00,
2013-05-22 13:47:00,87.3,68.6,29.80,East,90,4.7,9.8,54,0.00,,,0.00,WUHU216HW,2013-05-22 17:47:00,
2013-05-22 13:51:00,87.1,68.0,29.80,SSW,203,4.5,7.2,53,0.00,,,0.00,WUHU216HW,2013-05-22 17:51:00,
2013-05-22 13:53:00,87.5,68.2,29.80,SSE,158,4.3,7.2,53,0.00,,,0.00,WUHU216HW,2013-05-22 17:53:00,
2013-05-22 13:55:00,87.5,68.2,29.80,SSW,203,4.3,7.2,53,0.00,,,0.00,WUHU216HW,2013-05-22 17:55:00,
2013-05-22 13:56:00,87.7,67.9,29.79,SSW,203,3.4,7.2,52,0.00,,,0.00,WUHU216HW,2013-05-22 17:56:00,
2013-05-22 13:57:00,87.7,67.9,29.79,ESE,113,2.5,7.2,52,0.00,,,0.00,WUHU216HW,2013-05-22 17:57:00,
2013-05-22 13:58:00,87.8,68.0,29.79,SE,138,5.3,6.3,52,0.00,,,0.00,WUHU216HW,2013-05-22 17:58:00,
2013-05-22 13:59:00,87.8,68.6,29.79,South,180,5.6,6.3,53,0.00,,,0.00,WUHU216HW,2013-05-22 17:59:00,
2013-05-22 14:00:00,87.8,68.6,29.79,SSE,158,6.0,6.3,53,0.00,,,0.00,WUHU216HW,2013-05-22 18:00:00,
2013-05-22 14:02:00,88.0,68.2,29.79,SW,225,6.7,6.7,52,0.00,,,0.00,WUHU216HW,2013-05-22 18:02:00,
2013-05-22 14:04:00,88.0,68.8,29.79,SSW,203,4.6,6.7,53,0.00,,,0.00,WUHU216HW,2013-05-22 18:04:00,
2013-05-22 14:05:00,88.0,68.2,29.79,SSE,158,5.4,6.7,52,0.00,,,0.00,WUHU216HW,2013-05-22 18:05:00,
2013-05-22 14:06:00,88.2,68.4,29.79,SSE,158,4.7,6.7,52,0.00,,,0.00,WUHU216HW,2013-05-22 18:06:00,
2013-05-22 14:07:00,88.2,68.4,29.79,SE,135,5.4,6.7,52,0.00,,,0.00,WUHU216HW,2013-05-22 18:07:00,
2013-05-22 14:09:00,88.2,67.9,29.79,SSE,158,9.4,9.4,51,0.00,,,0.00,WUHU216HW,2013-05-22 18:09:00,
2013-05-22 14:11:00,88.2,67.9,29.79,SE,135,7.6,9.4,51,0.00,,,0.00,WUHU216HW,2013-05-22 18:11:00,
2013-05-22 14:12:00,88.2,67.9,29.79,SE,145,6.9,9.4,51,0.00,,,0.00,WUHU216HW,2013-05-22 18:12:00,
2013-05-22 14:13:00,88.2,67.9,29.79,South,178,5.9,9.4,51,0.00,,,0.00,WUHU216HW,2013-05-22 18:13:00,
2013-05-22 14:16:00,88.2,68.4,29.78,SSE,158,5.4,9.4,52,0.00,,,0.00,WUHU216HW,2013-05-22 18:16:00,
2013-05-22 14:17:00,88.2,69.0,29.79,South,180,5.6,9.4,53,0.00,,,0.00,WUHU216HW,2013-05-22 18:17:00,
2013-05-22 14:18:00,88.4,69.0,29.79,SSW,196,3.6,9.4,53,0.00,,,0.00,WUHU216HW,2013-05-22 18:18:00,
2013-05-22 14:19:00,88.4,68.5,29.78,West,270,5.4,7.6,52,0.00,,,0.00,WUHU216HW,2013-05-22 18:19:00,
2013-05-22 14:23:00,88.7,68.3,29.78,SSE,164,4.1,6.5,51,0.00,,,0.00,WUHU216HW,2013-05-22 18:23:00,
2013-05-22 14:24:00,88.7,68.3,29.78,ESE,120,2.7,6.5,51,0.00,,,0.00,WUHU216HW,2013-05-22 18:24:00,
2013-05-22 14:25:00,88.7,68.3,29.78,SSE,158,3.4,6.5,51,0.00,,,0.00,WUHU216HW,2013-05-22 18:25:00,
2013-05-22 14:29:00,88.9,68.5,29.78,SE,139,2.7,6.5,51,0.00,,,0.00,WUHU216HW,2013-05-22 18:29:00,
2013-05-22 14:30:00,88.9,68.5,29.78,SE,139,2.7,6.5,51,0.00,,,0.00,WUHU216HW,2013-05-22 18:30:00,
2013-05-22 14:31:00,88.9,69.0,29.78,SSE,158,4.3,6.5,52,0.00,,,0.00,WUHU216HW,2013-05-22 18:31:00,
2013-05-22 14:34:00,88.7,67.8,29.78,SSW,211,4.5,7.2,50,0.00,,,0.00,WUHU216HW,2013-05-22 18:34:00,
2013-05-22 14:35:00,88.7,67.8,29.78,SE,135,4.7,7.2,50,0.00,,,0.00,WUHU216HW,2013-05-22 18:35:00,
2013-05-22 14:36:00,88.7,67.8,29.78,SE,135,4.7,7.2,50,0.00,,,0.00,WUHU216HW,2013-05-22 18:36:00,
2013-05-22 14:39:00,88.6,68.1,29.78,SSE,163,4.1,7.6,51,0.00,,,0.00,WUHU216HW,2013-05-22 18:39:00,
2013-05-22 14:41:00,88.7,68.3,29.78,SSE,164,3.1,7.6,51,0.00,,,0.00,WUHU216HW,2013-05-22 18:41:00,
2013-05-22 14:42:00,88.9,68.5,29.78,SSW,203,4.0,7.6,51,0.00,,,0.00,WUHU216HW,2013-05-22 18:42:00,
2013-05-22 14:46:00,89.1,68.7,29.77,SSE,158,3.4,7.6,51,0.00,,,0.00,WUHU216HW,2013-05-22 18:46:00,
2013-05-22 14:47:00,89.1,68.7,29.77,SW,225,3.6,4.7,51,0.00,,,0.00,WUHU216HW,2013-05-22 18:47:00,
2013-05-22 14:48:00,89.1,68.1,29.77,South,180,3.4,4.0,50,0.00,,,0.00,WUHU216HW,2013-05-22 18:48:00,
2013-05-22 14:51:00,88.7,68.3,29.77,WNW,293,5.4,5.4,51,0.00,,,0.00,WUHU216HW,2013-05-22 18:51:00,
2013-05-22 14:52:00,88.7,68.3,29.77,WNW,293,5.4,5.4,51,0.00,,,0.00,WUHU216HW,2013-05-22 18:52:00,
2013-05-22 14:53:00,88.6,67.6,29.77,SSE,158,8.5,8.5,50,0.00,,,0.00,WUHU216HW,2013-05-22 18:53:00,
2013-05-22 14:54:00,88.4,67.4,29.77,WSW,248,2.7,8.5,50,0.00,,,0.00,WUHU216HW,2013-05-22 18:54:00,
2013-05-22 14:57:00,88.2,67.3,29.77,WSW,248,2.2,8.5,50,0.00,,,0.00,WUHU216HW,2013-05-22 18:57:00,
2013-05-22 14:58:00,88.0,67.2,29.77,SSW,203,6.9,8.5,50,0.00,,,0.00,WUHU216HW,2013-05-22 18:58:00,
2013-05-22 14:59:00,87.8,67.0,29.77,SW,214,4.7,8.5,50,0.00,,,0.00,WUHU216HW,2013-05-22 18:59:00,
2013-05-22 15:00:00,87.8,67.0,29.77,SSW,203,3.1,8.5,50,0.00,,,0.00,WUHU216HW,2013-05-22 19:00:00,
2013-05-22 15:03:00,87.5,67.7,29.77,SE,143,2.6,6.9,52,0.00,,,0.00,WUHU216HW,2013-05-22 19:03:00,
2013-05-22 15:04:00,87.5,68.2,29.77,SE,135,2.5,6.9,53,0.00,,,0.00,WUHU216HW,2013-05-22 19:04:00,
2013-05-22 15:05:00,87.5,67.7,29.77,WNW,293,2.5,6.9,52,0.00,,,0.00,WUHU216HW,2013-05-22 19:05:00,
2013-05-22 15:06:00,87.5,67.7,29.77,SE,135,2.5,6.9,52,0.00,,,0.00,WUHU216HW,2013-05-22 19:06:00,
2013-05-22 15:08:00,87.7,67.9,29.77,SSW,192,3.3,5.4,52,0.00,,,0.00,WUHU216HW,2013-05-22 19:08:00,
2013-05-22 15:10:00,87.7,67.9,29.77,SE,135,2.2,5.4,52,0.00,,,0.00,WUHU216HW,2013-05-22 19:10:00,
2013-05-22 15:11:00,87.8,68.6,29.77,SSW,203,4.0,5.4,53,0.00,,,0.00,WUHU216HW,2013-05-22 19:11:00,
2013-05-22 15:12:00,88.0,68.2,29.77,SSE,158,5.4,5.4,52,0.00,,,0.00,WUHU216HW,2013-05-22 19:12:00,
2013-05-22 15:13:00,88.2,68.4,29.77,South,169,3.3,5.4,52,0.00,,,0.00,WUHU216HW,2013-05-22 19:13:00,
2013-05-22 15:15:00,88.6,69.8,29.76,SW,225,2.0,5.4,54,0.00,,,0.00,WUHU216HW,2013-05-22 19:15:00,
2013-05-22 15:16:00,88.9,70.1,29.77,South,186,1.6,5.4,54,0.00,,,0.00,WUHU216HW,2013-05-22 19:16:00,
2013-05-22 15:17:00,88.9,69.6,29.76,South,180,1.8,5.4,53,0.00,,,0.00,WUHU216HW,2013-05-22 19:17:00,
2013-05-22 15:20:00,89.5,70.6,29.76,SE,135,3.6,5.4,54,0.00,,,0.00,WUHU216HW,2013-05-22 19:20:00,
2013-05-22 15:21:00,89.6,70.2,29.76,SSW,203,4.5,5.4,53,0.00,,,0.00,WUHU216HW,2013-05-22 19:21:00,
2013-05-22 15:22:00,89.5,70.0,29.76,SW,224,3.2,4.5,53,0.00,,,0.00,WUHU216HW,2013-05-22 19:22:00,
2013-05-22 15:23:00,89.5,69.5,29.76,SW,225,4.0,4.5,52,0.00,,,0.00,WUHU216HW,2013-05-22 19:23:00,
2013-05-22 15:24:00,89.1,69.2,29.76,SW,235,3.5,4.5,52,0.00,,,0.00,WUHU216HW,2013-05-22 19:24:00,
2013-05-22 15:25:00,89.1,69.2,29.76,SW,217,2.4,4.5,52,0.00,,,0.00,WUHU216HW,2013-05-22 19:25:00,
2013-05-22 15:26:00,88.9,69.6,29.76,SE,135,1.8,4.5,53,0.00,,,0.00,WUHU216HW,2013-05-22 19:26:00,
2013-05-22 15:27:00,88.9,69.6,29.76,SE,135,2.9,4.5,53,0.00,,,0.00,WUHU216HW,2013-05-22 19:27:00,
2013-05-22 15:28:00,88.9,70.1,29.76,WSW,248,4.0,4.5,54,0.00,,,0.00,WUHU216HW,2013-05-22 19:28:00,
2013-05-22 15:29:00,88.9,69.6,29.76,SSW,203,4.5,4.5,53,0.00,,,0.00,WUHU216HW,2013-05-22 19:29:00,
2013-05-22 15:31:00,88.7,68.9,29.76,SE,135,4.7,4.7,52,0.00,,,0.00,WUHU216HW,2013-05-22 19:31:00,
2013-05-22 15:32:00,88.6,68.1,29.76,SE,135,4.3,4.7,51,0.00,,,0.00,WUHU216HW,2013-05-22 19:32:00,
2013-05-22 15:33:00,88.6,68.1,29.76,SE,145,3.7,4.7,51,0.00,,,0.00,WUHU216HW,2013-05-22 19:33:00,
2013-05-22 15:34:00,88.6,68.1,29.76,South,176,3.0,4.7,51,0.00,,,0.00,WUHU216HW,2013-05-22 19:34:00,
2013-05-22 15:36:00,88.6,68.7,29.76,SSW,192,4.2,4.9,52,0.00,,,0.00,WUHU216HW,2013-05-22 19:36:00,
2013-05-22 15:37:00,88.6,68.7,29.76,North,0,3.4,4.9,52,0.00,,,0.00,WUHU216HW,2013-05-22 19:37:00,
2013-05-22 15:38:00,88.9,69.0,29.76,NW,325,2.7,4.9,52,0.00,,,0.00,WUHU216HW,2013-05-22 19:38:00,
2013-05-22 15:39:00,88.9,69.0,29.76,SSW,203,4.0,4.9,52,0.00,,,0.00,WUHU216HW,2013-05-22 19:39:00,
2013-05-22 15:41:00,89.3,68.8,29.75,WSW,253,4.5,6.5,51,0.00,,,0.00,WUHU216HW,2013-05-22 19:41:00,
2013-05-22 15:42:00,89.3,68.8,29.75,SSW,192,2.3,6.5,51,0.00,,,0.00,WUHU216HW,2013-05-22 19:42:00,
2013-05-22 15:43:00,89.3,68.8,29.75,SSE,158,3.1,6.5,51,0.00,,,0.00,WUHU216HW,2013-05-22 19:43:00,
2013-05-22 15:44:00,89.3,68.8,29.75,SSW,197,2.5,6.5,51,0.00,,,0.00,WUHU216HW,2013-05-22 19:44:00,
2013-05-22 15:47:00,89.3,68.8,29.75,WSW,248,4.5,6.5,51,0.00,,,0.00,WUHU216HW,2013-05-22 19:47:00,
2013-05-22 15:48:00,89.3,68.8,29.75,WSW,239,3.7,6.5,51,0.00,,,0.00,WUHU216HW,2013-05-22 19:48:00,
2013-05-22 15:49:00,89.3,68.8,29.75,SSE,158,4.3,6.5,51,0.00,,,0.00,WUHU216HW,2013-05-22 19:49:00,
2013-05-22 15:50:00,89.3,68.8,29.75,SSE,158,4.3,4.5,51,0.00,,,0.00,WUHU216HW,2013-05-22 19:50:00,
2013-05-22 15:52:00,89.3,68.8,29.75,SSE,157,3.2,4.5,51,0.00,,,0.00,WUHU216HW,2013-05-22 19:52:00,
2013-05-22 15:54:00,89.1,68.7,29.75,South,180,6.9,6.9,51,0.00,,,0.00,WUHU216HW,2013-05-22 19:54:00,
2013-05-22 15:55:00,89.1,68.7,29.75,South,175,4.3,6.9,51,0.00,,,0.00,WUHU216HW,2013-05-22 19:55:00,
2013-05-22 15:58:00,88.9,68.5,29.75,South,180,7.8,7.8,51,0.00,,,0.00,WUHU216HW,2013-05-22 19:58:00,
2013-05-22 16:00:00,88.6,68.1,29.75,SE,144,5.6,7.8,51,0.00,,,0.00,WUHU216HW,2013-05-22 20:00:00,
2013-05-22 16:01:00,88.2,67.3,29.75,SSE,147,4.9,7.8,50,0.00,,,0.00,WUHU216HW,2013-05-22 20:01:00,
2013-05-22 16:02:00,87.8,67.0,29.75,South,180,4.0,7.8,50,0.00,,,0.00,WUHU216HW,2013-05-22 20:02:00,
2013-05-22 16:03:00,87.7,66.8,29.75,SW,225,4.0,7.8,50,0.00,,,0.00,WUHU216HW,2013-05-22 20:03:00,
2013-05-22 16:05:00,87.3,67.1,29.75,South,180,4.9,7.8,51,0.00,,,0.00,WUHU216HW,2013-05-22 20:05:00,
2013-05-22 16:06:00,87.1,66.9,29.74,South,172,3.9,7.8,51,0.00,,,0.00,WUHU216HW,2013-05-22 20:06:00,
2013-05-22 16:07:00,87.1,67.4,29.75,SE,138,2.6,6.5,52,0.00,,,0.00,WUHU216HW,2013-05-22 20:07:00,
2013-05-22 16:08:00,86.9,67.2,29.74,West,270,3.4,6.5,52,0.00,,,0.00,WUHU216HW,2013-05-22 20:08:00,
2013-05-22 16:11:00,86.9,67.8,29.74,SSW,203,4.0,5.4,53,0.00,,,0.00,WUHU216HW,2013-05-22 20:11:00,
2013-05-22 16:12:00,86.8,67.6,29.74,West,270,4.5,5.4,53,0.00,,,0.00,WUHU216HW,2013-05-22 20:12:00,
2013-05-22 16:13:00,86.8,67.6,29.74,West,270,4.5,5.4,53,0.00,,,0.00,WUHU216HW,2013-05-22 20:13:00,
2013-05-22 16:15:00,86.8,68.1,29.74,SSE,158,2.7,5.4,54,0.00,,,0.00,WUHU216HW,2013-05-22 20:15:00,
2013-05-22 16:16:00,86.8,68.1,29.74,SW,225,2.7,5.4,54,0.00,,,0.00,WUHU216HW,2013-05-22 20:16:00,
2013-05-22 16:18:00,86.8,67.6,29.74,SE,128,2.9,5.4,53,0.00,,,0.00,WUHU216HW,2013-05-22 20:18:00,
2013-05-22 16:20:00,86.8,67.6,29.74,SE,135,1.6,4.5,53,0.00,,,0.00,WUHU216HW,2013-05-22 20:20:00,
2013-05-22 16:21:00,86.6,66.9,29.74,SW,225,2.2,4.5,52,0.00,,,0.00,WUHU216HW,2013-05-22 20:21:00,
2013-05-22 16:24:00,86.2,67.1,29.74,WSW,248,3.4,3.8,53,0.00,,,0.00,WUHU216HW,2013-05-22 20:24:00,
2013-05-22 16:26:00,85.7,67.2,29.75,SW,225,2.9,3.8,54,0.00,,,0.00,WUHU216HW,2013-05-22 20:26:00,
2013-05-22 16:30:00,84.6,66.2,29.74,WNW,291,3.2,3.4,54,0.00,,,0.00,WUHU216HW,2013-05-22 20:30:00,
2013-05-22 16:31:00,84.2,66.3,29.74,WNW,296,2.1,3.4,55,0.00,,,0.00,WUHU216HW,2013-05-22 20:31:00,
2013-05-22 16:33:00,83.5,65.1,29.75,West,268,1.4,3.4,54,0.00,,,0.00,WUHU216HW,2013-05-22 20:33:00,
2013-05-22 16:35:00,83.0,65.1,29.75,NNE,23,4.3,4.3,55,0.00,,,0.00,WUHU216HW,2013-05-22 20:35:00,
2013-05-22 16:36:00,82.6,64.2,29.75,North,10,2.7,4.3,54,0.00,,,0.00,WUHU216HW,2013-05-22 20:36:00,
2013-05-22 16:38:00,81.7,63.9,29.75,WNW,299,2.1,4.3,55,0.00,,,0.00,WUHU216HW,2013-05-22 20:38:00,
2013-05-22 16:39:00,81.5,64.3,29.75,WSW,242,1.6,4.3,56,0.00,,,0.00,WUHU216HW,2013-05-22 20:39:00,
2013-05-22 16:42:00,80.6,64.0,29.75,West,270,0.4,4.3,57,0.00,,,0.00,WUHU216HW,2013-05-22 20:42:00,
2013-05-22 16:43:00,80.5,63.8,29.75,NNE,23,0.4,4.3,57,0.00,,,0.00,WUHU216HW,2013-05-22 20:43:00,
2013-05-22 16:44:00,80.3,64.2,29.75,North,0,0.4,4.3,58,0.00,,,0.00,WUHU216HW,2013-05-22 20:44:00,
2013-05-22 16:45:00,80.1,64.0,29.75,North,0,0.4,2.2,58,0.00,,,0.00,WUHU216HW,2013-05-22 20:45:00,
2013-05-22 16:47:00,79.9,64.4,29.75,North,353,0.6,2.0,59,0.00,,,0.00,WUHU216HW,2013-05-22 20:47:00,
2013-05-22 16:48:00,79.9,64.4,29.75,NNW,338,0.4,1.3,59,0.00,,,0.00,WUHU216HW,2013-05-22 20:48:00,
2013-05-22 16:49:00,79.9,64.4,29.75,NNW,338,0.7,1.1,59,0.00,,,0.00,WUHU216HW,2013-05-22 20:49:00,
2013-05-22 16:50:00,79.9,64.4,29.75,NNW,329,0.6,0.9,59,0.00,,,0.00,WUHU216HW,2013-05-22 20:50:00,
2013-05-22 16:51:00,79.9,64.9,29.75,WSW,248,1.8,1.8,60,0.00,,,0.00,WUHU216HW,2013-05-22 20:51:00,
2013-05-22 16:53:00,79.7,64.7,29.75,North,0,1.1,1.8,60,0.00,,,0.00,WUHU216HW,2013-05-22 20:53:00,
2013-05-22 16:54:00,79.7,64.7,29.75,North,0,1.0,1.8,60,0.00,,,0.00,WUHU216HW,2013-05-22 20:54:00,
2013-05-22 16:55:00,79.7,64.7,29.75,NW,322,0.8,1.8,60,0.00,,,0.00,WUHU216HW,2013-05-22 20:55:00,
2013-05-22 16:56:00,79.6,64.5,29.75,SW,225,1.8,1.8,60,0.00,,,0.00,WUHU216HW,2013-05-22 20:56:00,
2013-05-22 16:58:00,79.7,65.2,29.74,SSE,158,1.1,1.8,61,0.00,,,0.00,WUHU216HW,2013-05-22 20:58:00,
2013-05-22 17:00:00,79.9,65.4,29.74,West,263,0.6,1.8,61,0.00,,,0.00,WUHU216HW,2013-05-22 21:00:00,
2013-05-22 17:01:00,79.9,65.4,29.74,WSW,248,1.1,1.8,61,0.00,,,0.00,WUHU216HW,2013-05-22 21:01:00,
2013-05-22 17:02:00,79.9,64.9,29.74,NNW,336,1.1,1.8,60,0.00,,,0.00,WUHU216HW,2013-05-22 21:02:00,
2013-05-22 17:03:00,79.9,64.9,29.74,NNW,336,1.1,1.8,60,0.00,,,0.00,WUHU216HW,2013-05-22 21:03:00,
2013-05-22 17:05:00,80.1,65.1,29.74,West,270,0.9,1.8,60,0.00,,,0.00,WUHU216HW,2013-05-22 21:05:00,
2013-05-22 17:07:00,80.1,65.5,29.74,SSE,158,1.6,1.6,61,0.00,,,0.00,WUHU216HW,2013-05-22 21:07:00,
2013-05-22 17:08:00,80.3,65.6,29.74,WSW,248,1.6,1.6,61,0.00,,,0.00,WUHU216HW,2013-05-22 21:08:00,
2013-05-22 17:10:00,80.5,65.8,29.74,South,180,4.0,4.0,61,0.00,,,0.00,WUHU216HW,2013-05-22 21:10:00,
2013-05-22 17:11:00,80.6,66.4,29.74,South,180,3.3,4.0,62,0.00,,,0.00,WUHU216HW,2013-05-22 21:11:00,
2013-05-22 17:12:00,80.8,66.6,29.74,SSW,202,2.6,4.0,62,0.00,,,0.00,WUHU216HW,2013-05-22 21:12:00,
2013-05-22 17:14:00,81.2,66.9,29.73,SSE,168,3.8,4.5,62,0.00,,,0.00,WUHU216HW,2013-05-22 21:14:00,
2013-05-22 17:16:00,81.5,67.7,29.73,SE,126,3.3,4.5,63,0.00,,,0.00,WUHU216HW,2013-05-22 21:16:00,
2013-05-22 17:17:00,81.7,67.4,29.73,SSE,158,3.8,4.5,62,0.00,,,0.00,WUHU216HW,2013-05-22 21:17:00,
2013-05-22 17:18:00,81.9,67.6,29.73,ESE,113,6.5,6.5,62,0.00,,,0.00,WUHU216HW,2013-05-22 21:18:00,
2013-05-22 17:19:00,82.1,67.2,29.73,SE,127,4.8,6.5,61,0.00,,,0.00,WUHU216HW,2013-05-22 21:19:00,
2013-05-22 17:20:00,82.3,67.9,29.73,SSW,203,4.0,6.5,62,0.00,,,0.00,WUHU216HW,2013-05-22 21:20:00,
2013-05-22 17:21:00,82.3,67.9,29.73,South,174,3.5,6.5,62,0.00,,,0.00,WUHU216HW,2013-05-22 21:21:00,
2013-05-22 17:24:00,82.6,67.8,29.73,SSW,210,3.5,6.5,61,0.00,,,0.00,WUHU216HW,2013-05-22 21:24:00,
2013-05-22 17:25:00,82.6,67.3,29.73,West,270,6.9,6.9,60,0.00,,,0.00,WUHU216HW,2013-05-22 21:25:00,
2013-05-22 17:27:00,82.6,67.3,29.74,SSW,203,4.0,6.9,60,0.00,,,0.00,WUHU216HW,2013-05-22 21:27:00,
2013-05-22 17:30:00,82.6,67.3,29.73,South,191,4.6,6.9,60,0.00,,,0.00,WUHU216HW,2013-05-22 21:30:00,
2013-05-22 17:31:00,82.6,67.3,29.73,South,191,4.6,6.9,60,0.00,,,0.00,WUHU216HW,2013-05-22 21:31:00,
2013-05-22 17:34:00,82.4,67.6,29.74,SSW,203,1.8,6.9,61,0.00,,,0.00,WUHU216HW,2013-05-22 21:34:00,
2013-05-22 17:35:00,82.4,67.6,29.74,South,169,5.0,6.0,61,0.00,,,0.00,WUHU216HW,2013-05-22 21:35:00,
2013-05-22 17:36:00,82.4,67.6,29.74,South,169,5.0,6.0,61,0.00,,,0.00,WUHU216HW,2013-05-22 21:36:00,
2013-05-22 17:39:00,82.1,67.7,29.74,SSW,203,3.3,6.0,62,0.00,,,0.00,WUHU216HW,2013-05-22 21:39:00,
2013-05-22 17:41:00,81.7,67.4,29.74,SSE,158,6.5,6.5,62,0.00,,,0.00,WUHU216HW,2013-05-22 21:41:00,
2013-05-22 17:42:00,81.7,67.4,29.74,SSE,158,5.3,6.5,62,0.00,,,0.00,WUHU216HW,2013-05-22 21:42:00,
2013-05-22 17:44:00,81.5,67.7,29.74,SW,225,8.5,8.5,63,0.00,,,0.00,WUHU216HW,2013-05-22 21:44:00,
2013-05-22 17:46:00,81.4,67.5,29.74,SSE,148,4.7,8.5,63,0.00,,,0.00,WUHU216HW,2013-05-22 21:46:00,
2013-05-22 17:47:00,81.4,67.5,29.74,South,180,4.5,8.5,63,0.00,,,0.00,WUHU216HW,2013-05-22 21:47:00,
2013-05-22 17:48:00,81.4,67.5,29.74,SSW,203,6.9,8.5,63,0.00,,,0.00,WUHU216HW,2013-05-22 21:48:00,
2013-05-22 17:49:00,81.4,67.5,29.74,South,186,5.4,8.5,63,0.00,,,0.00,WUHU216HW,2013-05-22 21:49:00,
2013-05-22 17:50:00,81.2,67.8,29.74,SSW,203,4.5,8.5,64,0.00,,,0.00,WUHU216HW,2013-05-22 21:50:00,
2013-05-22 17:52:00,81.0,67.7,29.74,South,173,3.3,8.5,64,0.00,,,0.00,WUHU216HW,2013-05-22 21:52:00,
2013-05-22 17:53:00,81.0,67.7,29.74,NW,313,1.1,8.5,64,0.00,,,0.00,WUHU216HW,2013-05-22 21:53:00,
2013-05-22 17:55:00,81.0,67.7,29.74,SSW,203,6.3,6.9,64,0.00,,,0.00,WUHU216HW,2013-05-22 21:55:00,
2013-05-22 17:57:00,81.0,67.7,29.74,SSW,194,2.7,6.9,64,0.00,,,0.00,WUHU216HW,2013-05-22 21:57:00,
2013-05-22 17:58:00,80.8,67.5,29.74,SW,225,4.0,6.3,64,0.00,,,0.00,WUHU216HW,2013-05-22 21:58:00,
2013-05-22 17:59:00,80.8,67.5,29.74,SW,230,2.5,6.3,64,0.00,,,0.00,WUHU216HW,2013-05-22 21:59:00,
2013-05-22 18:00:00,80.8,67.5,29.74,SSE,158,4.0,6.3,64,0.00,,,0.00,WUHU216HW,2013-05-22 22:00:00,
2013-05-22 18:02:00,80.8,67.5,29.74,SW,222,2.9,6.3,64,0.00,,,0.00,WUHU216HW,2013-05-22 22:02:00,
2013-05-22 18:03:00,80.8,68.0,29.74,SW,225,2.5,6.3,65,0.00,,,0.00,WUHU216HW,2013-05-22 22:03:00,
2013-05-22 18:04:00,81.0,68.1,29.74,SSE,158,4.4,6.3,65,0.00,,,0.00,WUHU216HW,2013-05-22 22:04:00,
2013-05-22 18:05:00,81.0,68.1,29.74,SSE,158,4.4,5.4,65,0.00,,,0.00,WUHU216HW,2013-05-22 22:05:00,
2013-05-22 18:08:00,80.8,67.5,29.74,South,180,4.0,5.4,64,0.00,,,0.00,WUHU216HW,2013-05-22 22:08:00,
2013-05-22 18:10:00,81.0,67.7,29.74,South,180,2.9,5.4,64,0.00,,,0.00,WUHU216HW,2013-05-22 22:10:00,
2013-05-22 18:11:00,80.8,67.5,29.74,SSW,203,2.5,5.4,64,0.00,,,0.00,WUHU216HW,2013-05-22 22:11:00,
2013-05-22 18:12:00,80.6,67.3,29.74,SSE,152,2.3,5.4,64,0.00,,,0.00,WUHU216HW,2013-05-22 22:12:00,
2013-05-22 18:14:00,80.6,67.3,29.74,SSE,160,2.3,5.4,64,0.00,,,0.00,WUHU216HW,2013-05-22 22:14:00,
2013-05-22 18:15:00,80.6,67.3,29.74,West,270,3.4,5.4,64,0.00,,,0.00,WUHU216HW,2013-05-22 22:15:00,
2013-05-22 18:16:00,80.6,67.3,29.74,WSW,243,2.5,5.4,64,0.00,,,0.00,WUHU216HW,2013-05-22 22:16:00,
2013-05-22 18:18:00,80.5,67.1,29.74,South,174,3.6,5.4,64,0.00,,,0.00,WUHU216HW,2013-05-22 22:18:00,
2013-05-22 18:20:00,80.3,67.0,29.74,WSW,251,1.9,5.4,64,0.00,,,0.00,WUHU216HW,2013-05-22 22:20:00,
2013-05-22 18:21:00,80.1,66.8,29.74,South,180,4.5,5.4,64,0.00,,,0.00,WUHU216HW,2013-05-22 22:21:00,
2013-05-22 18:22:00,80.1,67.2,29.74,SSW,203,6.0,6.0,65,0.00,,,0.00,WUHU216HW,2013-05-22 22:22:00,
2013-05-22 18:23:00,79.9,66.6,29.74,South,180,4.3,6.0,64,0.00,,,0.00,WUHU216HW,2013-05-22 22:23:00,
2013-05-22 18:27:00,79.6,66.8,29.74,WSW,242,0.8,6.0,65,0.00,,,0.00,WUHU216HW,2013-05-22 22:27:00,
2013-05-22 18:28:00,79.4,66.6,29.74,West,270,3.4,6.0,65,0.00,,,0.00,WUHU216HW,2013-05-22 22:28:00,
2013-05-22 18:29:00,79.2,66.4,29.74,West,268,1.9,6.0,65,0.00,,,0.00,WUHU216HW,2013-05-22 22:29:00,
2013-05-22 18:32:00,78.8,66.1,29.74,SSE,158,2.7,5.4,65,0.00,,,0.00,WUHU216HW,2013-05-22 22:32:00,
2013-05-22 18:33:00,78.8,66.1,29.74,ESE,113,6.3,6.3,65,0.00,,,0.00,WUHU216HW,2013-05-22 22:33:00,
2013-05-22 18:34:00,78.7,66.3,29.74,SSE,149,5.1,6.3,66,0.00,,,0.00,WUHU216HW,2013-05-22 22:34:00,
2013-05-22 18:35:00,78.5,66.2,29.75,West,259,2.3,6.3,66,0.00,,,0.00,WUHU216HW,2013-05-22 22:35:00,
2013-05-22 18:38:00,77.9,66.1,29.75,NE,45,0.7,6.3,67,0.00,,,0.00,WUHU216HW,2013-05-22 22:38:00,
2013-05-22 18:39:00,77.8,65.9,29.75,South,180,2.0,6.3,67,0.02,,,0.02,WUHU216HW,2013-05-22 22:39:00,
2013-05-22 18:40:00,77.6,66.3,29.75,SSE,163,1.6,6.3,68,0.02,,,0.02,WUHU216HW,2013-05-22 22:40:00,
2013-05-22 18:41:00,77.4,66.5,29.75,SSW,203,2.0,6.3,69,0.02,,,0.02,WUHU216HW,2013-05-22 22:41:00,
2013-05-22 18:43:00,77.2,66.3,29.75,WSW,244,0.8,3.8,69,0.02,,,0.02,WUHU216HW,2013-05-22 22:43:00,
2013-05-22 18:44:00,77.0,66.2,29.75,NE,45,1.1,2.0,69,0.02,,,0.02,WUHU216HW,2013-05-22 22:44:00,
2013-05-22 18:46:00,76.7,66.2,29.74,NW,315,0.4,2.0,70,0.02,,,0.02,WUHU216HW,2013-05-22 22:46:00,
2013-05-22 18:48:00,76.7,66.2,29.74,SW,216,1.5,2.5,70,0.02,,,0.02,WUHU216HW,2013-05-22 22:48:00,
2013-05-22 18:50:00,76.7,66.2,29.74,East,90,0.2,2.5,70,0.02,,,0.02,WUHU216HW,2013-05-22 22:50:00,
2013-05-22 18:51:00,76.7,66.2,29.74,East,90,0.2,2.5,70,0.02,,,0.02,WUHU216HW,2013-05-22 22:51:00,
2013-05-22 18:52:00,76.7,66.2,29.75,SSW,203,1.1,2.5,70,0.02,,,0.02,WUHU216HW,2013-05-22 22:52:00,
2013-05-22 18:54:00,76.7,66.2,29.75,SW,225,0.0,2.5,70,0.02,,,0.02,WUHU216HW,2013-05-22 22:54:00,
2013-05-22 18:55:00,76.7,66.2,29.75,WSW,248,0.0,2.5,70,0.02,,,0.02,WUHU216HW,2013-05-22 22:55:00,
2013-05-22 18:56:00,76.7,66.2,29.75,WSW,248,0.0,2.5,70,0.02,,,0.02,WUHU216HW,2013-05-22 22:56:00,
2013-05-22 18:57:00,76.7,66.2,29.75,WSW,248,0.0,1.1,70,0.02,,,0.02,WUHU216HW,2013-05-22 22:57:00,
2013-05-22 18:58:00,76.7,66.2,29.75,WSW,248,0.0,1.1,70,0.02,,,0.02,WUHU216HW,2013-05-22 22:58:00,
2013-05-22 19:00:00,76.7,66.6,29.75,WSW,248,0.0,1.1,71,0.02,,,0.02,WUHU216HW,2013-05-22 23:00:00,
2013-05-22 19:01:00,76.9,66.8,29.75,WSW,248,0.0,1.1,71,0.02,,,0.02,WUHU216HW,2013-05-22 23:01:00,
2013-05-22 19:02:00,76.9,66.8,29.75,WSW,248,0.0,0.0,71,0.02,,,0.02,WUHU216HW,2013-05-22 23:02:00,
2013-05-22 19:03:00,76.9,66.8,29.75,NNW,338,0.0,0.0,71,0.02,,,0.02,WUHU216HW,2013-05-22 23:03:00,
2013-05-22 19:06:00,77.0,67.0,29.75,NW,315,0.0,0.0,71,0.02,,,0.02,WUHU216HW,2013-05-22 23:06:00,
2013-05-22 19:07:00,77.0,67.0,29.75,NW,315,0.0,0.0,71,0.02,,,0.02,WUHU216HW,2013-05-22 23:07:00,
2013-05-22 19:08:00,77.0,67.0,29.75,NW,315,0.0,0.0,71,0.02,,,0.02,WUHU216HW,2013-05-22 23:08:00,
2013-05-22 19:11:00,77.0,66.6,29.75,WSW,248,0.7,0.7,70,0.02,,,0.02,WUHU216HW,2013-05-22 23:11:00,
2013-05-22 19:12:00,76.9,66.4,29.75,WSW,248,0.4,0.7,70,0.02,,,0.02,WUHU216HW,2013-05-22 23:12:00,
2013-05-22 19:14:00,76.7,66.2,29.75,WSW,248,0.7,0.7,70,0.02,,,0.02,WUHU216HW,2013-05-22 23:14:00,
2013-05-22 19:15:00,76.7,66.2,29.75,WSW,248,0.7,0.7,70,0.02,,,0.02,WUHU216HW,2013-05-22 23:15:00,
2013-05-22 19:17:00,76.5,66.1,29.75,WSW,248,1.3,1.3,70,0.02,,,0.02,WUHU216HW,2013-05-22 23:17:00,
2013-05-22 19:18:00,76.3,65.9,29.75,WSW,248,1.0,1.3,70,0.02,,,0.02,WUHU216HW,2013-05-22 23:18:00,
2013-05-22 19:19:00,76.3,65.9,29.75,WSW,248,0.7,1.3,70,0.02,,,0.02,WUHU216HW,2013-05-22 23:19:00,
2013-05-22 19:20:00,76.1,65.7,29.75,West,270,0.0,1.3,70,0.02,,,0.02,WUHU216HW,2013-05-22 23:20:00,
2013-05-22 19:23:00,75.8,65.7,29.75,West,270,0.0,1.3,71,0.02,,,0.02,WUHU216HW,2013-05-22 23:23:00,
2013-05-22 19:25:00,75.6,65.5,29.75,West,270,0.0,1.3,71,0.02,,,0.02,WUHU216HW,2013-05-22 23:25:00,
2013-05-22 19:27:00,75.2,65.2,29.75,West,270,0.0,0.7,71,0.02,,,0.02,WUHU216HW,2013-05-22 23:27:00,
2013-05-22 19:29:00,75.1,65.1,29.74,West,270,0.0,0.0,71,0.02,,,0.02,WUHU216HW,2013-05-22 23:29:00,
2013-05-22 19:30:00,74.9,65.3,29.74,West,270,0.0,0.0,72,0.02,,,0.02,WUHU216HW,2013-05-22 23:30:00,
2013-05-22 19:32:00,74.7,65.1,29.74,West,270,0.0,0.0,72,0.02,,,0.02,WUHU216HW,2013-05-22 23:32:00,
2013-05-22 19:33:00,74.5,64.9,29.75,West,270,0.0,0.0,72,0.02,,,0.02,WUHU216HW,2013-05-22 23:33:00,
2013-05-22 19:34:00,74.5,65.4,29.75,West,270,0.0,0.0,73,0.02,,,0.02,WUHU216HW,2013-05-22 23:34:00,
2013-05-22 19:36:00,74.3,65.2,29.75,West,270,0.0,0.0,73,0.02,,,0.02,WUHU216HW,2013-05-22 23:36:00,
2013-05-22 19:37:00,74.3,65.2,29.75,West,270,0.0,0.0,73,0.00,,,0.02,WUHU216HW,2013-05-22 23:37:00,
2013-05-22 19:38:00,74.2,65.0,29.75,West,270,0.0,0.0,73,0.00,,,0.02,WUHU216HW,2013-05-22 23:38:00,
2013-05-22 19:40:00,74.0,65.2,29.75,West,270,0.0,0.0,74,0.00,,,0.02,WUHU216HW,2013-05-22 23:40:00,
2013-05-22 19:42:00,73.8,65.1,29.75,West,270,0.0,0.0,74,0.00,,,0.02,WUHU216HW,2013-05-22 23:42:00,
2013-05-22 19:43:00,73.8,65.1,29.75,West,270,0.0,0.0,74,0.00,,,0.02,WUHU216HW,2013-05-22 23:43:00,
2013-05-22 19:44:00,73.8,65.1,29.75,West,270,0.0,0.0,74,0.00,,,0.02,WUHU216HW,2013-05-22 23:44:00,
2013-05-22 19:45:00,73.6,64.9,29.75,West,270,0.0,0.0,74,0.00,,,0.02,WUHU216HW,2013-05-22 23:45:00,
2013-05-22 19:47:00,73.6,64.9,29.76,West,270,0.0,0.0,74,0.00,,,0.02,WUHU216HW,2013-05-22 23:47:00,
2013-05-22 19:48:00,73.4,65.1,29.75,West,270,0.0,0.0,75,0.00,,,0.02,WUHU216HW,2013-05-22 23:48:00,
2013-05-22 19:49:00,73.4,65.1,29.76,West,270,0.0,0.0,75,0.00,,,0.02,WUHU216HW,2013-05-22 23:49:00,
2013-05-22 19:51:00,73.3,64.9,29.76,West,270,0.0,0.0,75,0.00,,,0.02,WUHU216HW,2013-05-22 23:51:00,
2013-05-22 19:54:00,73.1,64.7,29.76,West,270,0.0,0.0,75,0.00,,,0.02,WUHU216HW,2013-05-22 23:54:00,
2013-05-22 19:55:00,73.1,64.7,29.76,West,270,0.0,0.0,75,0.00,,,0.02,WUHU216HW,2013-05-22 23:55:00,
2013-05-22 19:57:00,73.1,64.7,29.76,West,270,0.0,0.0,75,0.00,,,0.02,WUHU216HW,2013-05-22 23:57:00,
2013-05-22 19:59:00,72.9,64.9,29.76,West,270,0.0,0.0,76,0.00,,,0.02,WUHU216HW,2013-05-22 23:59:00,
2013-05-22 20:00:00,72.7,64.7,29.76,West,270,0.0,0.0,76,0.00,,,0.02,WUHU216HW,2013-05-23 00:00:00,
2013-05-22 20:02:00,72.7,64.7,29.76,West,270,0.0,0.0,76,0.00,,,0.02,WUHU216HW,2013-05-23 00:02:00,
2013-05-22 20:04:00,72.7,65.1,29.76,West,270,0.0,0.0,77,0.00,,,0.02,WUHU216HW,2013-05-23 00:04:00,
2013-05-22 20:05:00,72.5,64.9,29.76,West,270,0.0,0.0,77,0.00,,,0.02,WUHU216HW,2013-05-23 00:05:00,
2013-05-22 20:07:00,72.5,64.9,29.76,West,270,0.0,0.0,77,0.00,,,0.02,WUHU216HW,2013-05-23 00:07:00,
2013-05-22 20:08:00,72.5,64.9,29.76,West,270,0.0,0.0,77,0.00,,,0.02,WUHU216HW,2013-05-23 00:08:00,
2013-05-22 20:10:00,72.4,64.7,29.76,West,270,0.0,0.0,77,0.00,,,0.02,WUHU216HW,2013-05-23 00:10:00,
2013-05-22 20:11:00,72.4,64.7,29.76,West,270,0.0,0.0,77,0.00,,,0.02,WUHU216HW,2013-05-23 00:11:00,
2013-05-22 20:13:00,72.4,64.7,29.76,West,270,0.0,0.0,77,0.00,,,0.02,WUHU216HW,2013-05-23 00:13:00,
2013-05-22 20:14:00,72.4,64.7,29.76,West,270,0.0,0.0,77,0.00,,,0.02,WUHU216HW,2013-05-23 00:14:00,
2013-05-22 20:17:00,72.2,64.5,29.76,West,270,0.0,0.0,77,0.00,,,0.02,WUHU216HW,2013-05-23 00:17:00,
2013-05-22 20:18:00,72.2,64.5,29.76,West,270,0.0,0.0,77,0.00,,,0.02,WUHU216HW,2013-05-23 00:18:00,
2013-05-22 20:20:00,72.0,64.4,29.76,West,270,0.6,0.9,77,0.00,,,0.02,WUHU216HW,2013-05-23 00:20:00,
2013-05-22 20:21:00,72.0,64.4,29.76,West,270,0.2,0.9,77,0.00,,,0.02,WUHU216HW,2013-05-23 00:21:00,
2013-05-22 20:23:00,72.0,64.4,29.76,West,270,0.0,0.9,77,0.00,,,0.02,WUHU216HW,2013-05-23 00:23:00,
2013-05-22 20:26:00,71.8,64.2,29.76,West,270,0.0,0.9,77,0.00,,,0.02,WUHU216HW,2013-05-23 00:26:00,
2013-05-22 20:29:00,71.6,64.0,29.76,West,270,0.0,0.2,77,0.00,,,0.02,WUHU216HW,2013-05-23 00:29:00,
2013-05-22 20:31:00,71.6,64.5,29.76,West,270,0.4,0.4,78,0.00,,,0.02,WUHU216HW,2013-05-23 00:31:00,
2013-05-22 20:34:00,71.3,64.5,29.76,West,270,0.0,0.4,79,0.00,,,0.02,WUHU216HW,2013-05-23 00:34:00,
2013-05-22 20:35:00,71.1,64.3,29.76,West,270,0.0,0.4,79,0.00,,,0.02,WUHU216HW,2013-05-23 00:35:00,
2013-05-22 20:36:00,71.1,64.3,29.76,West,270,0.0,0.4,79,0.00,,,0.02,WUHU216HW,2013-05-23 00:36:00,
2013-05-22 20:37:00,71.1,64.3,29.76,West,270,0.0,0.4,79,0.00,,,0.02,WUHU216HW,2013-05-23 00:37:00,
2013-05-22 20:40:00,70.7,63.9,29.76,West,270,0.0,0.0,79,0.00,,,0.02,WUHU216HW,2013-05-23 00:40:00,
2013-05-22 20:41:00,70.7,63.9,29.76,West,270,0.0,0.0,79,0.00,,,0.02,WUHU216HW,2013-05-23 00:41:00,
2013-05-22 20:43:00,70.6,63.7,29.76,West,270,0.0,0.0,79,0.00,,,0.02,WUHU216HW,2013-05-23 00:43:00,
2013-05-22 20:45:00,70.6,64.1,29.76,West,270,0.0,0.0,80,0.00,,,0.02,WUHU216HW,2013-05-23 00:45:00,
2013-05-22 20:47:00,70.4,63.9,29.76,West,270,0.0,0.0,80,0.00,,,0.02,WUHU216HW,2013-05-23 00:47:00,
2013-05-22 20:50:00,70.2,63.7,29.76,West,270,0.0,0.0,80,0.00,,,0.02,WUHU216HW,2013-05-23 00:50:00,
2013-05-22 20:52:00,70.2,63.7,29.76,West,270,0.0,0.0,80,0.00,,,0.02,WUHU216HW,2013-05-23 00:52:00,
2013-05-22 20:53:00,70.2,63.7,29.76,West,270,0.0,0.0,80,0.00,,,0.02,WUHU216HW,2013-05-23 00:53:00,
2013-05-22 20:55:00,70.2,63.7,29.76,West,270,0.0,0.0,80,0.00,,,0.02,WUHU216HW,2013-05-23 00:55:00,
2013-05-22 20:57:00,70.0,63.5,29.76,West,270,0.0,0.0,80,0.00,,,0.02,WUHU216HW,2013-05-23 00:57:00,
2013-05-22 20:58:00,70.0,63.5,29.76,West,270,0.0,0.0,80,0.00,,,0.02,WUHU216HW,2013-05-23 00:58:00,
2013-05-22 20:59:00,70.0,63.5,29.76,West,270,0.0,0.0,80,0.00,,,0.02,WUHU216HW,2013-05-23 00:59:00,
2013-05-22 21:01:00,70.0,63.5,29.76,West,270,0.0,0.0,80,0.00,,,0.02,WUHU216HW,2013-05-23 01:01:00,
2013-05-22 21:03:00,70.0,63.5,29.76,West,270,0.0,0.0,80,0.00,,,0.02,WUHU216HW,2013-05-23 01:03:00,
2013-05-22 21:04:00,70.0,63.9,29.76,West,270,0.0,0.0,81,0.00,,,0.02,WUHU216HW,2013-05-23 01:04:00,
2013-05-22 21:06:00,70.0,63.9,29.76,West,270,0.0,0.0,81,0.00,,,0.02,WUHU216HW,2013-05-23 01:06:00,
2013-05-22 21:07:00,69.8,63.7,29.76,West,270,0.0,0.0,81,0.00,,,0.02,WUHU216HW,2013-05-23 01:07:00,
2013-05-22 21:08:00,69.8,63.7,29.76,West,270,0.0,0.0,81,0.00,,,0.02,WUHU216HW,2013-05-23 01:08:00,
2013-05-22 21:09:00,69.8,63.7,29.76,West,270,0.0,0.0,81,0.00,,,0.02,WUHU216HW,2013-05-23 01:09:00,
2013-05-22 21:11:00,69.8,63.7,29.76,West,270,0.0,0.0,81,0.00,,,0.02,WUHU216HW,2013-05-23 01:11:00,
2013-05-22 21:12:00,69.8,63.7,29.76,West,270,0.0,0.0,81,0.00,,,0.02,WUHU216HW,2013-05-23 01:12:00,
2013-05-22 21:14:00,69.8,63.7,29.76,West,270,0.0,0.0,81,0.00,,,0.02,WUHU216HW,2013-05-23 01:14:00,
2013-05-22 21:17:00,69.7,63.6,29.76,West,270,0.0,0.0,81,0.00,,,0.02,WUHU216HW,2013-05-23 01:17:00,
2013-05-22 21:20:00,69.5,63.4,29.76,West,270,0.0,0.0,81,0.00,,,0.02,WUHU216HW,2013-05-23 01:20:00,
2013-05-22 21:21:00,69.5,63.7,29.76,West,270,0.0,0.0,82,0.00,,,0.02,WUHU216HW,2013-05-23 01:21:00,
2013-05-22 21:23:00,69.5,63.7,29.76,West,270,0.4,0.4,82,0.00,,,0.02,WUHU216HW,2013-05-23 01:23:00,
2013-05-22 21:26:00,69.1,63.4,29.77,SSE,158,0.9,0.9,82,0.00,,,0.02,WUHU216HW,2013-05-23 01:26:00,
2013-05-22 21:28:00,69.1,63.4,29.77,SE,135,0.4,0.9,82,0.00,,,0.02,WUHU216HW,2013-05-23 01:28:00,
2013-05-22 21:29:00,69.1,63.4,29.76,SE,135,0.4,0.9,82,0.00,,,0.02,WUHU216HW,2013-05-23 01:29:00,
2013-05-22 21:30:00,69.1,63.4,29.77,SE,135,0.0,0.9,82,0.00,,,0.02,WUHU216HW,2013-05-23 01:30:00,
2013-05-22 21:31:00,69.1,63.4,29.76,SE,135,0.0,0.9,82,0.00,,,0.02,WUHU216HW,2013-05-23 01:31:00,
2013-05-22 21:32:00,69.1,63.4,29.76,SE,135,0.0,0.9,82,0.00,,,0.02,WUHU216HW,2013-05-23 01:32:00,
2013-05-22 21:34:00,68.9,63.5,29.77,SE,135,0.7,0.9,83,0.00,,,0.02,WUHU216HW,2013-05-23 01:34:00,
2013-05-22 21:35:00,68.9,63.5,29.77,SE,135,0.4,0.9,83,0.00,,,0.02,WUHU216HW,2013-05-23 01:35:00,
2013-05-22 21:36:00,68.9,63.5,29.76,SE,135,0.4,0.7,83,0.00,,,0.02,WUHU216HW,2013-05-23 01:36:00,
2013-05-22 21:38:00,68.9,63.5,29.77,SE,135,0.4,0.7,83,0.00,,,0.02,WUHU216HW,2013-05-23 01:38:00,
2013-05-22 21:39:00,68.9,63.5,29.77,SE,135,0.0,0.7,83,0.00,,,0.02,WUHU216HW,2013-05-23 01:39:00,
2013-05-22 21:41:00,68.9,63.5,29.77,SE,135,0.0,0.7,83,0.00,,,0.02,WUHU216HW,2013-05-23 01:41:00,
2013-05-22 21:42:00,68.8,63.4,29.77,SE,135,1.1,1.1,83,0.00,,,0.02,WUHU216HW,2013-05-23 01:42:00,
2013-05-22 21:44:00,68.8,63.4,29.77,SE,135,0.9,1.1,83,0.00,,,0.02,WUHU216HW,2013-05-23 01:44:00,
2013-05-22 21:45:00,68.8,63.4,29.77,SE,135,0.9,1.1,83,0.00,,,0.02,WUHU216HW,2013-05-23 01:45:00,
2013-05-22 21:47:00,68.8,63.7,29.77,ESE,113,0.7,1.1,84,0.00,,,0.02,WUHU216HW,2013-05-23 01:47:00,
2013-05-22 21:48:00,68.8,63.4,29.77,ESE,113,0.7,1.1,83,0.00,,,0.02,WUHU216HW,2013-05-23 01:48:00,
2013-05-22 21:50:00,68.8,63.4,29.77,SE,135,0.2,1.1,83,0.00,,,0.02,WUHU216HW,2013-05-23 01:50:00,
2013-05-22 21:51:00,68.8,63.4,29.77,SE,135,0.0,1.1,83,0.00,,,0.02,WUHU216HW,2013-05-23 01:51:00,
2013-05-22 21:52:00,68.8,63.4,29.77,SSE,158,0.0,0.9,83,0.00,,,0.02,WUHU216HW,2013-05-23 01:52:00,
2013-05-22 21:54:00,68.8,63.4,29.77,SE,135,0.0,0.9,83,0.00,,,0.02,WUHU216HW,2013-05-23 01:54:00,
2013-05-22 21:55:00,68.8,63.4,29.77,SE,135,0.0,0.9,83,0.00,,,0.02,WUHU216HW,2013-05-23 01:55:00,
2013-05-22 21:58:00,68.6,63.2,29.77,SSE,158,0.2,0.2,83,0.00,,,0.02,WUHU216HW,2013-05-23 01:58:00,
2013-05-22 21:59:00,68.6,63.5,29.77,SSE,158,0.0,0.2,84,0.00,,,0.02,WUHU216HW,2013-05-23 01:59:00,
2013-05-22 22:01:00,68.6,63.5,29.77,SE,140,0.6,1.1,84,0.00,,,0.02,WUHU216HW,2013-05-23 02:01:00,
2013-05-22 22:02:00,68.6,63.5,29.77,SW,225,0.4,1.1,84,0.00,,,0.02,WUHU216HW,2013-05-23 02:02:00,
2013-05-22 22:03:00,68.6,63.5,29.77,West,270,0.7,1.1,84,0.00,,,0.02,WUHU216HW,2013-05-23 02:03:00,
2013-05-22 22:04:00,68.4,63.4,29.77,West,270,0.7,1.1,84,0.00,,,0.02,WUHU216HW,2013-05-23 02:04:00,
2013-05-22 22:07:00,68.6,63.5,29.77,SE,144,1.4,1.8,84,0.00,,,0.02,WUHU216HW,2013-05-23 02:07:00,
2013-05-22 22:08:00,68.6,63.5,29.78,ESE,113,1.8,1.8,84,0.00,,,0.02,WUHU216HW,2013-05-23 02:08:00,
2013-05-22 22:09:00,68.6,63.5,29.77,ESE,113,1.3,1.8,84,0.00,,,0.02,WUHU216HW,2013-05-23 02:09:00,
2013-05-22 22:10:00,68.6,63.5,29.77,ESE,113,1.3,1.8,84,0.00,,,0.02,WUHU216HW,2013-05-23 02:10:00,
2013-05-22 22:12:00,68.8,63.7,29.77,South,180,0.7,1.8,84,0.00,,,0.02,WUHU216HW,2013-05-23 02:12:00,
2013-05-22 22:13:00,68.8,63.7,29.78,SSE,158,1.1,1.8,84,0.00,,,0.02,WUHU216HW,2013-05-23 02:13:00,
2013-05-22 22:14:00,68.8,63.7,29.78,SSE,147,1.0,1.8,84,0.00,,,0.02,WUHU216HW,2013-05-23 02:14:00,
2013-05-22 22:16:00,68.8,63.7,29.78,SE,129,0.8,1.8,84,0.00,,,0.02,WUHU216HW,2013-05-23 02:16:00,
2013-05-22 22:18:00,68.8,63.4,29.78,SE,135,0.4,1.3,83,0.00,,,0.02,WUHU216HW,2013-05-23 02:18:00,
2013-05-22 22:19:00,68.8,63.4,29.78,SE,135,0.4,1.3,83,0.00,,,0.02,WUHU216HW,2013-05-23 02:19:00,
2013-05-22 22:21:00,68.8,63.4,29.78,SE,135,0.0,1.1,83,0.00,,,0.02,WUHU216HW,2013-05-23 02:21:00,
2013-05-22 22:22:00,68.8,63.4,29.78,SE,135,0.0,1.1,83,0.00,,,0.02,WUHU216HW,2013-05-23 02:22:00,
2013-05-22 22:24:00,68.8,63.4,29.78,SE,135,0.4,1.1,83,0.00,,,0.02,WUHU216HW,2013-05-23 02:24:00,
2013-05-22 22:26:00,68.8,63.4,29.78,SE,135,0.0,0.4,83,0.00,,,0.02,WUHU216HW,2013-05-23 02:26:00,
2013-05-22 22:27:00,68.8,63.4,29.79,SE,135,0.0,0.4,83,0.00,,,0.02,WUHU216HW,2013-05-23 02:27:00,
2013-05-22 22:28:00,68.6,63.2,29.79,SE,135,0.0,0.4,83,0.00,,,0.02,WUHU216HW,2013-05-23 02:28:00,
2013-05-22 22:30:00,68.6,63.2,29.79,SE,135,0.0,0.4,83,0.00,,,0.02,WUHU216HW,2013-05-23 02:30:00,
2013-05-22 22:31:00,68.6,63.2,29.79,SE,135,0.0,0.4,83,0.00,,,0.02,WUHU216HW,2013-05-23 02:31:00,
2013-05-22 22:33:00,68.6,63.2,29.79,ESE,113,1.1,1.1,83,0.00,,,0.02,WUHU216HW,2013-05-23 02:33:00,
2013-05-22 22:35:00,68.6,63.2,29.79,ESE,113,1.1,1.1,83,0.00,,,0.02,WUHU216HW,2013-05-23 02:35:00,
2013-05-22 22:37:00,68.8,63.4,29.79,SE,135,0.6,2.2,83,0.00,,,0.02,WUHU216HW,2013-05-23 02:37:00,
2013-05-22 22:38:00,68.8,63.4,29.79,ESE,113,0.7,2.2,83,0.00,,,0.02,WUHU216HW,2013-05-23 02:38:00,
2013-05-22 22:39:00,68.8,63.4,29.79,SSE,158,1.6,2.2,83,0.00,,,0.02,WUHU216HW,2013-05-23 02:39:00,
2013-05-22 22:40:00,68.8,63.4,29.79,SSE,155,0.9,2.2,83,0.00,,,0.02,WUHU216HW,2013-05-23 02:40:00,
2013-05-22 22:43:00,68.9,63.5,29.79,SE,135,0.4,2.2,83,0.00,,,0.02,WUHU216HW,2013-05-23 02:43:00,
2013-05-22 22:44:00,68.9,63.5,29.79,SE,135,0.0,2.2,83,0.00,,,0.02,WUHU216HW,2013-05-23 02:44:00,
2013-05-22 22:45:00,68.9,63.5,29.79,SE,135,0.0,1.6,83,0.00,,,0.02,WUHU216HW,2013-05-23 02:45:00,
2013-05-22 22:50:00,69.1,63.7,29.79,SSE,158,0.7,0.7,83,0.00,,,0.02,WUHU216HW,2013-05-23 02:50:00,
2013-05-22 22:51:00,69.1,63.7,29.79,SSE,158,0.0,0.7,83,0.00,,,0.02,WUHU216HW,2013-05-23 02:51:00,
2013-05-22 22:55:00,69.1,63.7,29.79,SE,135,1.1,1.1,83,0.00,,,0.02,WUHU216HW,2013-05-23 02:55:00,
2013-05-22 22:56:00,69.1,63.7,29.79,SE,145,1.0,1.1,83,0.00,,,0.02,WUHU216HW,2013-05-23 02:56:00,
2013-05-22 22:57:00,69.1,63.7,29.79,SE,145,1.0,1.1,83,0.00,,,0.02,WUHU216HW,2013-05-23 02:57:00,
2013-05-22 23:00:00,69.1,63.4,29.79,SSE,158,0.0,1.1,82,0.00,,,0.02,WUHU216HW,2013-05-23 03:00:00,
2013-05-22 23:01:00,69.1,63.4,29.79,SSE,158,0.0,1.1,82,0.00,,,0.02,WUHU216HW,2013-05-23 03:01:00,
2013-05-22 23:02:00,69.1,63.4,29.79,SSE,158,0.0,1.1,82,0.00,,,0.02,WUHU216HW,2013-05-23 03:02:00,
2013-05-22 23:04:00,69.1,63.4,29.79,SSE,158,0.0,1.1,82,0.00,,,0.02,WUHU216HW,2013-05-23 03:04:00,
2013-05-22 23:05:00,69.1,63.4,29.79,SSE,158,0.0,0.9,82,0.00,,,0.02,WUHU216HW,2013-05-23 03:05:00,
2013-05-22 23:06:00,69.1,63.4,29.79,SSE,158,0.0,0.4,82,0.00,,,0.02,WUHU216HW,2013-05-23 03:06:00,
2013-05-22 23:07:00,69.1,63.4,29.79,SSE,158,0.0,0.4,82,0.00,,,0.02,WUHU216HW,2013-05-23 03:07:00,
2013-05-22 23:09:00,68.9,63.5,29.79,SSE,158,0.0,0.0,83,0.00,,,0.02,WUHU216HW,2013-05-23 03:09:00,
2013-05-22 23:10:00,68.9,63.2,29.79,SSE,158,0.0,0.0,82,0.00,,,0.02,WUHU216HW,2013-05-23 03:10:00,
2013-05-22 23:13:00,68.8,63.4,29.79,SSE,158,0.0,0.0,83,0.00,,,0.02,WUHU216HW,2013-05-23 03:13:00,
2013-05-22 23:14:00,68.8,63.4,29.79,SSE,158,0.0,0.0,83,0.00,,,0.02,WUHU216HW,2013-05-23 03:14:00,
2013-05-22 23:15:00,68.8,63.4,29.79,SSE,158,0.0,0.0,83,0.00,,,0.02,WUHU216HW,2013-05-23 03:15:00,
2013-05-22 23:18:00,68.6,63.2,29.79,South,180,0.0,0.0,83,0.00,,,0.02,WUHU216HW,2013-05-23 03:18:00,
2013-05-22 23:19:00,68.6,63.2,29.79,SSW,203,0.0,0.0,83,0.00,,,0.02,WUHU216HW,2013-05-23 03:19:00,
2013-05-22 23:20:00,68.4,63.1,29.79,SSW,203,0.0,0.0,83,0.00,,,0.02,WUHU216HW,2013-05-23 03:20:00,
2013-05-22 23:24:00,68.4,63.1,29.79,SSW,203,0.0,0.0,83,0.00,,,0.02,WUHU216HW,2013-05-23 03:24:00,
2013-05-22 23:25:00,68.4,63.1,29.79,SSW,203,0.0,0.0,83,0.00,,,0.02,WUHU216HW,2013-05-23 03:25:00,
2013-05-22 23:26:00,68.2,63.2,29.79,SSW,203,0.0,0.0,84,0.00,,,0.02,WUHU216HW,2013-05-23 03:26:00,
2013-05-22 23:28:00,68.2,63.2,29.79,SSW,203,0.0,0.0,84,0.00,,,0.02,WUHU216HW,2013-05-23 03:28:00,
2013-05-22 23:30:00,68.2,63.2,29.79,SSW,203,0.0,0.0,84,0.00,,,0.02,WUHU216HW,2013-05-23 03:30:00,
2013-05-22 23:31:00,68.2,63.2,29.79,SSW,203,0.0,0.0,84,0.00,,,0.02,WUHU216HW,2013-05-23 03:31:00,
2013-05-22 23:34:00,68.0,63.0,29.79,SSW,203,0.0,0.0,84,0.00,,,0.02,WUHU216HW,2013-05-23 03:34:00,
2013-05-22 23:36:00,68.0,63.0,29.79,SSW,203,0.0,0.0,84,0.00,,,0.02,WUHU216HW,2013-05-23 03:36:00,
2013-05-22 23:37:00,68.0,63.0,29.79,SSW,203,0.0,0.0,84,0.00,,,0.02,WUHU216HW,2013-05-23 03:37:00,
2013-05-22 23:38:00,68.0,63.0,29.79,SSW,203,0.0,0.0,84,0.00,,,0.02,WUHU216HW,2013-05-23 03:38:00,
2013-05-22 23:40:00,68.0,63.0,29.79,SSW,203,0.0,0.0,84,0.00,,,0.02,WUHU216HW,2013-05-23 03:40:00,
2013-05-22 23:41:00,67.9,62.8,29.78,SSW,203,0.0,0.0,84,0.00,,,0.02,WUHU216HW,2013-05-23 03:41:00,
2013-05-22 23:42:00,67.9,62.8,29.79,SSW,203,0.0,0.0,84,0.00,,,0.02,WUHU216HW,2013-05-23 03:42:00,
2013-05-22 23:44:00,67.9,62.8,29.78,SE,135,0.0,0.0,84,0.00,,,0.02,WUHU216HW,2013-05-23 03:44:00,
2013-05-22 23:46:00,67.7,62.6,29.79,SE,135,0.0,0.0,84,0.00,,,0.02,WUHU216HW,2013-05-23 03:46:00,
2013-05-22 23:47:00,67.7,62.6,29.79,SE,135,0.0,0.0,84,0.00,,,0.02,WUHU216HW,2013-05-23 03:47:00,
2013-05-22 23:49:00,67.7,63.0,29.79,SE,135,0.0,0.0,85,0.00,,,0.02,WUHU216HW,2013-05-23 03:49:00,
2013-05-22 23:50:00,67.7,63.0,29.78,SE,135,0.0,0.0,85,0.00,,,0.02,WUHU216HW,2013-05-23 03:50:00,
2013-05-22 23:51:00,67.7,63.0,29.78,SE,135,0.0,0.0,85,0.00,,,0.02,WUHU216HW,2013-05-23 03:51:00,
2013-05-22 23:52:00,67.5,62.8,29.78,SE,135,0.0,0.0,85,0.00,,,0.02,WUHU216HW,2013-05-23 03:52:00,
2013-05-22 23:55:00,67.3,62.6,29.78,SE,135,0.0,0.0,85,0.00,,,0.02,WUHU216HW,2013-05-23 03:55:00,
2013-05-22 23:57:00,67.3,63.0,29.78,SE,135,0.0,0.0,86,0.00,,,0.02,WUHU216HW,2013-05-23 03:57:00,
2013-05-22 23:58:00,67.3,63.0,29.78,SE,135,0.0,0.0,86,0.00,,,0.02,WUHU216HW,2013-05-23 03:58:00,